<?xml version="1.0" encoding="UTF-8" standalone="yes"?>
<gpx
 xmlns="http://www.topografix.com/GPX/1/1"
 creator="OziExplorer Version 3955t - http://www.oziexplorer.com"
 version="1.1"
 xmlns:xsi="http://www.w3.org/2001/XMLSchema-instance"
 xsi:schemaLocation="http://www.topografix.com/GPX/1/1 http://www.topografix.com/GPX/1/1/gpx.xsd">
<metadata>
 <time>2014-05-15T20:38:05Z</time>
 <bounds minlat="40.646880" minlon="14.476420" maxlat="40.686975" maxlon="14.505850"/>
</metadata>
<wpt lat="40.6706900" lon="14.4764200">
 <ele>1101.852051</ele>
 <time>2012-05-19T12:16:29.616Z</time>
 <name>Funivia</name>
 <cmt>Funivia C.mare-Faito</cmt>
 <desc>Funivia C.mare-Faito</desc>
 <sym>Trail Head</sym>
</wpt>
<wpt lat="40.6685300" lon="14.4804200">
 <ele>1111.910400</ele>
 <time>2012-05-19T12:16:29.616Z</time>
 <name>Bivio Cammino dell'Angelo</name>
 <cmt>Sentiero Castellammare-Faito</cmt>
 <desc>Sentiero Castellammare-Faito</desc>
 <sym>Flag, Blue</sym>
</wpt>
<wpt lat="40.6650900" lon="14.4895300">
 <ele>1199.000000</ele>
 <time>2012-05-19T12:16:29.616Z</time>
 <name>Lapilli vulcanici</name>
 <sym>Flag, Blue</sym>
</wpt>
<wpt lat="40.6582030" lon="14.4983620">
 <ele>1254.861572</ele>
 <time>2014-05-15T22:15:48.643Z</time>
 <name>Santuario S.Michele</name>
 <cmt>Santuario e Ostello S.Michele</cmt>
 <desc>Santuario e Ostello S.Michele</desc>
 <sym>Church</sym>
</wpt>
<wpt lat="40.6556060" lon="14.4970340">
 <ele>1120.140015</ele>
 <time>2011-08-21T15:10:56.001Z</time>
 <name>Pietraia</name>
 <cmt>Pietraia - parcheggio</cmt>
 <desc>Pietraia - parcheggio</desc>
 <sym>Parking Area</sym>
</wpt>
<wpt lat="40.6553190" lon="14.4981330">
 <ele>1118.000000</ele>
 <time>2014-05-15T22:15:48.643Z</time>
 <name>Acqua delle Scorchie</name>
 <cmt>Punto acqua</cmt>
 <desc>Punto acqua</desc>
 <sym>Drinking Water</sym>
</wpt>
<wpt lat="40.6535480" lon="14.5000280">
 <ele>1135.989624</ele>
 <time>2011-08-21T15:27:27.000Z</time>
 <name>Abbeveratoio</name>
 <cmt>Punto Acqua</cmt>
 <desc>Punto Acqua</desc>
 <sym>Flag, Blue</sym>
</wpt>
<wpt lat="40.6522680" lon="14.5016820">
 <ele>1177.000000</ele>
 <time>2011-08-21T15:34:20.001Z</time>
 <name>Ciampa del diavolo</name>
 <cmt>Punto panoramico</cmt>
 <desc>Punto panoramico</desc>
 <sym>Scenic Area</sym>
</wpt>
<wpt lat="40.6512000" lon="14.5004290">
 <ele>1196.949585</ele>
 <time>2011-08-21T15:41:09.001Z</time>
 <name>Sorgente Acqua Santa</name>
 <sym>Drinking Water</sym>
</wpt>
<wpt lat="40.6497530" lon="14.5023730">
 <time>2014-05-15T22:15:48.659Z</time>
 <name>Deviazione Scalandrone</name>
 <cmt>Attenzione non imboccare la deviazione per lo Scalandrone</cmt>
 <desc>Attenzione non imboccare la deviazione per lo Scalandrone</desc>
 <sym>Danger Area</sym>
</wpt>
<wpt lat="40.6474530" lon="14.5058350">
 <ele>1439.875244</ele>
 <time>2014-05-15T22:15:48.659Z</time>
 <name>Molare</name>
 <cmt>Cima monte S.Michele o Molare</cmt>
 <desc>Cima monte S.Michele o Molare</desc>
 <sym>Summit</sym>
</wpt>
<wpt lat="40.6784900" lon="14.4867500">
 <ele>373.000000</ele>
 <time>2014-02-01T19:57:07.343Z</time>
 <name>L'Angelo che ti veglia</name>
 <cmt>Climbing Area</cmt>
 <desc>Climbing Area</desc>
 <sym>Flag, Blue</sym>
</wpt>
<wpt lat="40.6786900" lon="14.4870600">
 <ele>376.000000</ele>
 <time>2014-02-01T19:57:07.343Z</time>
 <name>Sono al tuo fianco</name>
 <cmt>Climbing area</cmt>
 <desc>Climbing area</desc>
 <sym>Flag, Blue</sym>
</wpt>
<wpt lat="40.6805400" lon="14.4861700">
 <ele>249.936005</ele>
 <time>2014-05-15T22:15:48.659Z</time>
 <name>Bivio per guglia Castellano</name>
 <sym>Flag, Blue</sym>
</wpt>
<wpt lat="40.6822200" lon="14.4876700">
 <ele>216.000000</ele>
 <time>2014-02-01T19:57:07.343Z</time>
 <name>Fontane del Re</name>
 <cmt>02-OTT-10 13:13:09</cmt>
 <desc>02-OTT-10 13:13:09</desc>
 <sym>Flag, Blue</sym>
</wpt>
<trk>
 <name>350 - Difficoltà E</name>
 <desc>350 - Difficoltà E</desc>
<trkseg>
<trkpt lat="40.6869746" lon="14.4833973">
<ele>123.657364</ele>
<time>2012-04-30T09:10:18.011Z</time>
</trkpt>
<trkpt lat="40.6868900" lon="14.4835000">
<ele>127.040634</ele>
<time>2012-04-30T09:10:18.011Z</time>
</trkpt>
<trkpt lat="40.6866858" lon="14.4837835">
<ele>131.826004</ele>
<time>2012-04-30T09:10:18.011Z</time>
</trkpt>
<trkpt lat="40.6865353" lon="14.4840410">
<ele>133.746231</ele>
<time>2012-04-30T09:10:18.011Z</time>
</trkpt>
<trkpt lat="40.6862300" lon="14.4845200">
<ele>140.970001</ele>
<time>2012-04-30T09:10:18.011Z</time>
</trkpt>
<trkpt lat="40.6860838" lon="14.4847062">
<ele>142.890244</ele>
<time>2012-04-30T09:10:18.011Z</time>
</trkpt>
<trkpt lat="40.6859900" lon="14.4848100">
<ele>145.785843</ele>
<time>2012-04-30T09:10:18.011Z</time>
</trkpt>
<trkpt lat="40.6856300" lon="14.4853000">
<ele>153.466797</ele>
<time>2012-04-30T09:10:18.011Z</time>
</trkpt>
<trkpt lat="40.6858200" lon="14.4845200">
<ele>163.067993</ele>
<time>2012-04-30T09:10:18.011Z</time>
</trkpt>
<trkpt lat="40.6859200" lon="14.4840400">
<ele>168.371521</ele>
<time>2012-04-30T09:10:18.011Z</time>
</trkpt>
<trkpt lat="40.6858100" lon="14.4839800">
<ele>171.267120</ele>
<time>2012-04-30T09:10:18.011Z</time>
</trkpt>
<trkpt lat="40.6854000" lon="14.4844400">
<ele>177.027832</ele>
<time>2012-04-30T09:10:18.011Z</time>
</trkpt>
<trkpt lat="40.6853600" lon="14.4845000">
<ele>177.027832</ele>
<time>2012-04-30T09:10:18.011Z</time>
</trkpt>
<trkpt lat="40.6852996" lon="14.4846204">
<ele>177.972733</ele>
<time>2012-04-30T09:10:18.011Z</time>
</trkpt>
<trkpt lat="40.6850800" lon="14.4849200">
<ele>182.788559</ele>
<time>2012-04-30T09:10:18.011Z</time>
</trkpt>
<trkpt lat="40.6849400" lon="14.4850100">
<ele>185.196472</ele>
<time>2012-04-30T09:10:18.011Z</time>
</trkpt>
<trkpt lat="40.6846300" lon="14.4854100">
<ele>189.036957</ele>
<time>2012-04-30T09:10:18.011Z</time>
</trkpt>
<trkpt lat="40.6842100" lon="14.4858600">
<ele>194.309998</ele>
<time>2012-04-30T09:10:18.011Z</time>
</trkpt>
<trkpt lat="40.6840600" lon="14.4860700">
<ele>196.717926</ele>
<time>2012-04-30T09:10:18.011Z</time>
</trkpt>
<trkpt lat="40.6839100" lon="14.4862100">
<ele>198.638168</ele>
<time>2012-04-30T09:10:18.011Z</time>
</trkpt>
<trkpt lat="40.6837900" lon="14.4864000">
<ele>199.125839</ele>
<time>2012-04-30T09:10:18.011Z</time>
</trkpt>
<trkpt lat="40.6831800" lon="14.4870600">
<ele>208.757523</ele>
<time>2012-04-30T09:10:18.011Z</time>
</trkpt>
<trkpt lat="40.6830300" lon="14.4872900">
<ele>210.190079</ele>
<time>2012-04-30T09:10:18.011Z</time>
</trkpt>
<trkpt lat="40.6826900" lon="14.4876600">
<ele>215.950806</ele>
<time>2012-04-30T09:10:18.011Z</time>
</trkpt>
<trkpt lat="40.6826500" lon="14.4875100">
<ele>219.303604</ele>
<time>2012-04-30T09:10:18.011Z</time>
</trkpt>
<trkpt lat="40.6827200" lon="14.4872300">
<ele>221.254333</ele>
<time>2012-04-30T09:10:18.011Z</time>
</trkpt>
<trkpt lat="40.6826500" lon="14.4871100">
<ele>224.607132</ele>
<time>2012-04-30T09:10:18.011Z</time>
</trkpt>
<trkpt lat="40.6826100" lon="14.4872500">
<ele>225.094803</ele>
<time>2012-04-30T09:10:18.011Z</time>
</trkpt>
<trkpt lat="40.6825300" lon="14.4873400">
<ele>228.447601</ele>
<time>2012-04-30T09:10:18.011Z</time>
</trkpt>
<trkpt lat="40.6824200" lon="14.4873500">
<ele>230.367844</ele>
<time>2012-04-30T09:10:18.011Z</time>
</trkpt>
<trkpt lat="40.6824400" lon="14.4871500">
<ele>233.751129</ele>
<time>2012-04-30T09:10:18.011Z</time>
</trkpt>
<trkpt lat="40.6822300" lon="14.4873200">
<ele>236.128571</ele>
<time>2012-04-30T09:10:18.011Z</time>
</trkpt>
<trkpt lat="40.6820318" lon="14.4872758">
<ele>239.511841</ele>
<time>2012-04-30T09:10:18.011Z</time>
</trkpt>
<trkpt lat="40.6819097" lon="14.4872328">
<ele>242.376968</ele>
<time>2012-04-30T09:10:18.011Z</time>
</trkpt>
<trkpt lat="40.6817877" lon="14.4871524">
<ele>245.760239</ele>
<time>2012-04-30T09:10:18.011Z</time>
</trkpt>
<trkpt lat="40.6815700" lon="14.4869900">
<ele>250.545593</ele>
<time>2012-04-30T09:10:18.011Z</time>
</trkpt>
<trkpt lat="40.6814800" lon="14.4868000">
<ele>254.416565</ele>
<time>2012-04-30T09:10:18.011Z</time>
</trkpt>
<trkpt lat="40.6814600" lon="14.4865900">
<ele>257.769379</ele>
<time>2012-04-30T09:10:18.011Z</time>
</trkpt>
<trkpt lat="40.6814100" lon="14.4864300">
<ele>259.201935</ele>
<time>2012-04-30T09:10:18.011Z</time>
</trkpt>
<trkpt lat="40.6812254" lon="14.4863531">
<ele>260.664978</ele>
<time>2012-04-30T09:10:18.011Z</time>
</trkpt>
<trkpt lat="40.6810900" lon="14.4862900">
<ele>261.609833</ele>
<time>2012-04-30T09:10:18.011Z</time>
</trkpt>
<trkpt lat="40.6806154" lon="14.4860044">
<ele>261.609833</ele>
<time>2012-04-30T09:10:18.011Z</time>
</trkpt>
<trkpt lat="40.6805421" lon="14.4861707">
<ele>263.072876</ele>
<time>2012-04-30T09:10:18.011Z</time>
</trkpt>
<trkpt lat="40.6805665" lon="14.4864818">
<ele>264.017761</ele>
<time>2012-04-30T09:10:18.011Z</time>
</trkpt>
<trkpt lat="40.6806000" lon="14.4868400">
<ele>264.505432</ele>
<time>2012-04-30T09:10:18.011Z</time>
</trkpt>
<trkpt lat="40.6806800" lon="14.4873100">
<ele>264.017761</ele>
<time>2012-04-30T09:10:18.011Z</time>
</trkpt>
<trkpt lat="40.6808100" lon="14.4875700">
<ele>265.937988</ele>
<time>2012-04-30T09:10:18.011Z</time>
</trkpt>
<trkpt lat="40.6807700" lon="14.4877700">
<ele>265.937988</ele>
<time>2012-04-30T09:10:18.011Z</time>
</trkpt>
<trkpt lat="40.6808300" lon="14.4879700">
<ele>266.913361</ele>
<time>2012-04-30T09:10:18.011Z</time>
</trkpt>
<trkpt lat="40.6809100" lon="14.4881000">
<ele>266.425659</ele>
<time>2012-04-30T09:10:18.011Z</time>
</trkpt>
<trkpt lat="40.6809200" lon="14.4884600">
<ele>266.425659</ele>
<time>2012-04-30T09:10:18.011Z</time>
</trkpt>
<trkpt lat="40.6808800" lon="14.4885700">
<ele>265.937988</ele>
<time>2012-04-30T09:10:18.011Z</time>
</trkpt>
<trkpt lat="40.6807400" lon="14.4887000">
<ele>267.858246</ele>
<time>2012-04-30T09:10:18.011Z</time>
</trkpt>
<trkpt lat="40.6806500" lon="14.4887100">
<ele>271.241516</ele>
<time>2012-04-30T09:10:18.011Z</time>
</trkpt>
<trkpt lat="40.6805200" lon="14.4887700">
<ele>274.106628</ele>
<time>2012-04-30T09:10:18.011Z</time>
</trkpt>
<trkpt lat="40.6804400" lon="14.4888400">
<ele>277.489929</ele>
<time>2012-04-30T09:10:18.011Z</time>
</trkpt>
<trkpt lat="40.6803700" lon="14.4888000">
<ele>280.842712</ele>
<time>2012-04-30T09:10:18.011Z</time>
</trkpt>
<trkpt lat="40.6803100" lon="14.4888900">
<ele>283.738342</ele>
<time>2012-04-30T09:10:18.011Z</time>
</trkpt>
<trkpt lat="40.6802500" lon="14.4889100">
<ele>286.115753</ele>
<time>2012-04-30T09:10:18.011Z</time>
</trkpt>
<trkpt lat="40.6800900" lon="14.4889000">
<ele>292.851837</ele>
<time>2012-04-30T09:10:18.011Z</time>
</trkpt>
<trkpt lat="40.6800400" lon="14.4888600">
<ele>295.747437</ele>
<time>2012-04-30T09:10:18.011Z</time>
</trkpt>
<trkpt lat="40.6799800" lon="14.4887600">
<ele>298.155365</ele>
<time>2012-04-30T09:10:18.011Z</time>
</trkpt>
<trkpt lat="40.6799200" lon="14.4884700">
<ele>302.483521</ele>
<time>2012-04-30T09:10:18.011Z</time>
</trkpt>
<trkpt lat="40.6800700" lon="14.4883300">
<ele>317.357758</ele>
<time>2012-04-30T09:10:18.011Z</time>
</trkpt>
<trkpt lat="40.6801000" lon="14.4882800">
<ele>318.820801</ele>
<time>2012-04-30T09:10:18.011Z</time>
</trkpt>
<trkpt lat="40.6801200" lon="14.4881300">
<ele>324.093842</ele>
<time>2012-04-30T09:10:18.011Z</time>
</trkpt>
<trkpt lat="40.6800700" lon="14.4880800">
<ele>326.501740</ele>
<time>2012-04-30T09:10:18.011Z</time>
</trkpt>
<trkpt lat="40.6800100" lon="14.4880600">
<ele>329.854553</ele>
<time>2012-04-30T09:10:18.011Z</time>
</trkpt>
<trkpt lat="40.6799700" lon="14.4880000">
<ele>332.750153</ele>
<time>2012-04-30T09:10:18.011Z</time>
</trkpt>
<trkpt lat="40.6798800" lon="14.4879600">
<ele>335.645752</ele>
<time>2012-04-30T09:10:18.011Z</time>
</trkpt>
<trkpt lat="40.6796800" lon="14.4880100">
<ele>340.431122</ele>
<time>2012-04-30T09:10:18.011Z</time>
</trkpt>
<trkpt lat="40.6795500" lon="14.4880300">
<ele>346.679535</ele>
<time>2012-04-30T09:10:18.011Z</time>
</trkpt>
<trkpt lat="40.6797500" lon="14.4878500">
<ele>351.495331</ele>
<time>2012-04-30T09:10:18.011Z</time>
</trkpt>
<trkpt lat="40.6797700" lon="14.4877400">
<ele>354.390930</ele>
<time>2012-04-30T09:10:18.011Z</time>
</trkpt>
<trkpt lat="40.6797400" lon="14.4876600">
<ele>356.798859</ele>
<time>2012-04-30T09:10:18.011Z</time>
</trkpt>
<trkpt lat="40.6796800" lon="14.4877200">
<ele>359.176331</ele>
<time>2012-04-30T09:10:18.011Z</time>
</trkpt>
<trkpt lat="40.6795100" lon="14.4877700">
<ele>363.992157</ele>
<time>2012-04-30T09:10:18.011Z</time>
</trkpt>
<trkpt lat="40.6795000" lon="14.4874600">
<ele>374.081055</ele>
<time>2012-04-30T09:10:18.011Z</time>
</trkpt>
<trkpt lat="40.6793600" lon="14.4874100">
<ele>378.896881</ele>
<time>2012-04-30T09:10:18.011Z</time>
</trkpt>
<trkpt lat="40.6792575" lon="14.4873026">
<ele>381.304810</ele>
<time>2012-04-30T09:10:18.011Z</time>
</trkpt>
<trkpt lat="40.6791230" lon="14.4871953">
<ele>387.065521</ele>
<time>2012-04-30T09:10:18.011Z</time>
</trkpt>
<trkpt lat="40.6790100" lon="14.4871400">
<ele>389.961121</ele>
<time>2012-04-30T09:10:18.011Z</time>
</trkpt>
<trkpt lat="40.6787708" lon="14.4870666">
<ele>397.154388</ele>
<time>2012-04-30T09:10:18.011Z</time>
</trkpt>
<trkpt lat="40.6786918" lon="14.4870558">
<ele>397.154388</ele>
<time>2012-04-30T09:10:18.011Z</time>
</trkpt>
<trkpt lat="40.6784762" lon="14.4867447">
<ele>400.049988</ele>
<time>2012-04-30T09:10:18.011Z</time>
</trkpt>
<trkpt lat="40.6784233" lon="14.4865623">
<ele>404.865845</ele>
<time>2012-04-30T09:10:18.011Z</time>
</trkpt>
<trkpt lat="40.6783785" lon="14.4863906">
<ele>412.546814</ele>
<time>2012-04-30T09:10:18.011Z</time>
</trkpt>
<trkpt lat="40.6782300" lon="14.4861900">
<ele>416.874939</ele>
<time>2012-04-30T09:10:18.011Z</time>
</trkpt>
<trkpt lat="40.6781100" lon="14.4860900">
<ele>418.307526</ele>
<time>2012-04-30T09:10:18.011Z</time>
</trkpt>
<trkpt lat="40.6779400" lon="14.4858800">
<ele>421.203125</ele>
<time>2012-04-30T09:10:18.011Z</time>
</trkpt>
<trkpt lat="40.6779300" lon="14.4859200">
<ele>420.227753</ele>
<time>2012-04-30T09:10:18.011Z</time>
</trkpt>
<trkpt lat="40.6779000" lon="14.4859200">
<ele>419.282867</ele>
<time>2012-04-30T09:10:18.011Z</time>
</trkpt>
<trkpt lat="40.6778900" lon="14.4858500">
<ele>422.635681</ele>
<time>2012-04-30T09:10:18.011Z</time>
</trkpt>
<trkpt lat="40.6778200" lon="14.4858300">
<ele>424.068268</ele>
<time>2012-04-30T09:10:18.011Z</time>
</trkpt>
<trkpt lat="40.6775800" lon="14.4856300">
<ele>427.908722</ele>
<time>2012-04-30T09:10:18.011Z</time>
</trkpt>
<trkpt lat="40.6774300" lon="14.4854900">
<ele>434.187592</ele>
<time>2012-04-30T09:10:18.011Z</time>
</trkpt>
<trkpt lat="40.6774000" lon="14.4854300">
<ele>438.028076</ele>
<time>2012-04-30T09:10:18.011Z</time>
</trkpt>
<trkpt lat="40.6773400" lon="14.4853300">
<ele>439.460663</ele>
<time>2012-04-30T09:10:18.011Z</time>
</trkpt>
<trkpt lat="40.6773300" lon="14.4852500">
<ele>442.356262</ele>
<time>2012-04-30T09:10:18.011Z</time>
</trkpt>
<trkpt lat="40.6772300" lon="14.4850800">
<ele>446.196716</ele>
<time>2012-04-30T09:10:18.011Z</time>
</trkpt>
<trkpt lat="40.6773900" lon="14.4852000">
<ele>453.390015</ele>
<time>2012-04-30T09:10:18.011Z</time>
</trkpt>
<trkpt lat="40.6774000" lon="14.4851100">
<ele>454.853058</ele>
<time>2012-04-30T09:10:18.011Z</time>
</trkpt>
<trkpt lat="40.6773300" lon="14.4849500">
<ele>459.638397</ele>
<time>2012-04-30T09:10:18.011Z</time>
</trkpt>
<trkpt lat="40.6773800" lon="14.4849100">
<ele>463.021667</ele>
<time>2012-04-30T09:10:18.011Z</time>
</trkpt>
<trkpt lat="40.6775100" lon="14.4850400">
<ele>465.886810</ele>
<time>2012-04-30T09:10:18.011Z</time>
</trkpt>
<trkpt lat="40.6775500" lon="14.4850500">
<ele>468.782410</ele>
<time>2012-04-30T09:10:18.011Z</time>
</trkpt>
<trkpt lat="40.6775400" lon="14.4848700">
<ele>473.110535</ele>
<time>2012-04-30T09:10:18.011Z</time>
</trkpt>
<trkpt lat="40.6775000" lon="14.4847800">
<ele>475.518463</ele>
<time>2012-04-30T09:10:18.011Z</time>
</trkpt>
<trkpt lat="40.6774700" lon="14.4845900">
<ele>481.766876</ele>
<time>2012-04-30T09:10:18.011Z</time>
</trkpt>
<trkpt lat="40.6773800" lon="14.4845000">
<ele>484.174805</ele>
<time>2012-04-30T09:10:18.011Z</time>
</trkpt>
<trkpt lat="40.6773700" lon="14.4844000">
<ele>485.607330</ele>
<time>2012-04-30T09:10:18.011Z</time>
</trkpt>
<trkpt lat="40.6773400" lon="14.4842500">
<ele>492.343445</ele>
<time>2012-04-30T09:10:18.011Z</time>
</trkpt>
<trkpt lat="40.6774100" lon="14.4842000">
<ele>499.049042</ele>
<time>2012-04-30T09:10:18.011Z</time>
</trkpt>
<trkpt lat="40.6773400" lon="14.4840100">
<ele>503.864868</ele>
<time>2012-04-30T09:10:18.011Z</time>
</trkpt>
<trkpt lat="40.6773000" lon="14.4839500">
<ele>507.705353</ele>
<time>2012-04-30T09:10:18.011Z</time>
</trkpt>
<trkpt lat="40.6774200" lon="14.4839200">
<ele>511.088654</ele>
<time>2012-04-30T09:10:18.011Z</time>
</trkpt>
<trkpt lat="40.6774800" lon="14.4839500">
<ele>513.953735</ele>
<time>2012-04-30T09:10:18.011Z</time>
</trkpt>
<trkpt lat="40.6775200" lon="14.4839100">
<ele>516.849365</ele>
<time>2012-04-30T09:10:18.011Z</time>
</trkpt>
<trkpt lat="40.6774300" lon="14.4836800">
<ele>522.610046</ele>
<time>2012-04-30T09:10:18.011Z</time>
</trkpt>
<trkpt lat="40.6773700" lon="14.4836500">
<ele>525.018005</ele>
<time>2012-04-30T09:10:18.011Z</time>
</trkpt>
<trkpt lat="40.6772900" lon="14.4836700">
<ele>527.425903</ele>
<time>2012-04-30T09:10:18.011Z</time>
</trkpt>
<trkpt lat="40.6773200" lon="14.4836100">
<ele>530.291077</ele>
<time>2012-04-30T09:10:18.011Z</time>
</trkpt>
<trkpt lat="40.6774700" lon="14.4835700">
<ele>537.514771</ele>
<time>2012-04-30T09:10:18.011Z</time>
</trkpt>
<trkpt lat="40.6775800" lon="14.4835700">
<ele>540.410400</ele>
<time>2012-04-30T09:10:18.011Z</time>
</trkpt>
<trkpt lat="40.6775500" lon="14.4834600">
<ele>541.842957</ele>
<time>2012-04-30T09:10:18.011Z</time>
</trkpt>
<trkpt lat="40.6774900" lon="14.4833700">
<ele>545.195740</ele>
<time>2012-04-30T09:10:18.011Z</time>
</trkpt>
<trkpt lat="40.6771800" lon="14.4833400">
<ele>553.852051</ele>
<time>2012-04-30T09:10:18.011Z</time>
</trkpt>
<trkpt lat="40.6770800" lon="14.4832900">
<ele>557.235352</ele>
<time>2012-04-30T09:10:18.011Z</time>
</trkpt>
<trkpt lat="40.6770200" lon="14.4832000">
<ele>558.667908</ele>
<time>2012-04-30T09:10:18.011Z</time>
</trkpt>
<trkpt lat="40.6770000" lon="14.4831400">
<ele>560.588135</ele>
<time>2012-04-30T09:10:18.011Z</time>
</trkpt>
<trkpt lat="40.6769900" lon="14.4831400">
<ele>563.940918</ele>
<time>2012-04-30T09:10:18.011Z</time>
</trkpt>
<trkpt lat="40.6769900" lon="14.4831500">
<ele>565.861206</ele>
<time>2012-04-30T09:10:18.011Z</time>
</trkpt>
<trkpt lat="40.6769900" lon="14.4830900">
<ele>568.756775</ele>
<time>2012-04-30T09:10:18.011Z</time>
</trkpt>
<trkpt lat="40.6770900" lon="14.4831100">
<ele>572.109619</ele>
<time>2012-04-30T09:10:18.011Z</time>
</trkpt>
<trkpt lat="40.6771500" lon="14.4831500">
<ele>573.084961</ele>
<time>2012-04-30T09:10:18.011Z</time>
</trkpt>
<trkpt lat="40.6772300" lon="14.4830500">
<ele>576.437744</ele>
<time>2012-04-30T09:10:18.011Z</time>
</trkpt>
<trkpt lat="40.6773900" lon="14.4829800">
<ele>578.845642</ele>
<time>2012-04-30T09:10:18.011Z</time>
</trkpt>
<trkpt lat="40.6774100" lon="14.4829400">
<ele>580.765930</ele>
<time>2012-04-30T09:10:18.011Z</time>
</trkpt>
<trkpt lat="40.6775400" lon="14.4829200">
<ele>583.173828</ele>
<time>2012-04-30T09:10:18.011Z</time>
</trkpt>
<trkpt lat="40.6776100" lon="14.4828600">
<ele>584.149170</ele>
<time>2012-04-30T09:10:18.011Z</time>
</trkpt>
<trkpt lat="40.6777700" lon="14.4828800">
<ele>585.094055</ele>
<time>2012-04-30T09:10:18.011Z</time>
</trkpt>
<trkpt lat="40.6777900" lon="14.4828400">
<ele>587.502014</ele>
<time>2012-04-30T09:10:18.011Z</time>
</trkpt>
<trkpt lat="40.6776900" lon="14.4827900">
<ele>589.909912</ele>
<time>2012-04-30T09:10:18.011Z</time>
</trkpt>
<trkpt lat="40.6777100" lon="14.4826900">
<ele>593.750427</ele>
<time>2012-04-30T09:10:18.011Z</time>
</trkpt>
<trkpt lat="40.6778600" lon="14.4826900">
<ele>598.566284</ele>
<time>2012-04-30T09:10:18.011Z</time>
</trkpt>
<trkpt lat="40.6778400" lon="14.4826200">
<ele>602.406738</ele>
<time>2012-04-30T09:10:18.011Z</time>
</trkpt>
<trkpt lat="40.6777200" lon="14.4825400">
<ele>605.759521</ele>
<time>2012-04-30T09:10:18.011Z</time>
</trkpt>
<trkpt lat="40.6776000" lon="14.4825200">
<ele>608.655151</ele>
<time>2012-04-30T09:10:18.011Z</time>
</trkpt>
<trkpt lat="40.6774900" lon="14.4825400">
<ele>611.550720</ele>
<time>2012-04-30T09:10:18.011Z</time>
</trkpt>
<trkpt lat="40.6774700" lon="14.4825000">
<ele>614.903503</ele>
<time>2012-04-30T09:10:18.011Z</time>
</trkpt>
<trkpt lat="40.6774371" lon="14.4825068">
<ele>616.823730</ele>
<time>2012-04-30T09:10:18.011Z</time>
</trkpt>
<trkpt lat="40.6774200" lon="14.4824500">
<ele>620.176575</ele>
<time>2012-04-30T09:10:18.011Z</time>
</trkpt>
<trkpt lat="40.6775000" lon="14.4823300">
<ele>624.992371</ele>
<time>2012-04-30T09:10:18.011Z</time>
</trkpt>
<trkpt lat="40.6775900" lon="14.4822700">
<ele>628.345215</ele>
<time>2012-04-30T09:10:18.011Z</time>
</trkpt>
<trkpt lat="40.6774900" lon="14.4822500">
<ele>631.240784</ele>
<time>2012-04-30T09:10:18.011Z</time>
</trkpt>
<trkpt lat="40.6774300" lon="14.4822200">
<ele>634.136414</ele>
<time>2012-04-30T09:10:18.011Z</time>
</trkpt>
<trkpt lat="40.6775300" lon="14.4821200">
<ele>637.976929</ele>
<time>2012-04-30T09:10:18.011Z</time>
</trkpt>
<trkpt lat="40.6777000" lon="14.4820100">
<ele>642.792664</ele>
<time>2012-04-30T09:10:18.011Z</time>
</trkpt>
<trkpt lat="40.6776900" lon="14.4819800">
<ele>642.792664</ele>
<time>2012-04-30T09:10:18.011Z</time>
</trkpt>
<trkpt lat="40.6776700" lon="14.4819300">
<ele>647.578125</ele>
<time>2012-04-30T09:10:18.011Z</time>
</trkpt>
<trkpt lat="40.6776600" lon="14.4818900">
<ele>649.041077</ele>
<time>2012-04-30T09:10:18.011Z</time>
</trkpt>
<trkpt lat="40.6776300" lon="14.4819200">
<ele>652.393860</ele>
<time>2012-04-30T09:10:18.011Z</time>
</trkpt>
<trkpt lat="40.6775500" lon="14.4819500">
<ele>653.338806</ele>
<time>2012-04-30T09:10:18.011Z</time>
</trkpt>
<trkpt lat="40.6774500" lon="14.4819500">
<ele>657.209717</ele>
<time>2012-04-30T09:10:18.011Z</time>
</trkpt>
<trkpt lat="40.6773300" lon="14.4819000">
<ele>661.537903</ele>
<time>2012-04-30T09:10:18.011Z</time>
</trkpt>
<trkpt lat="40.6772000" lon="14.4818400">
<ele>662.970520</ele>
<time>2012-04-30T09:10:18.011Z</time>
</trkpt>
<trkpt lat="40.6771500" lon="14.4817300">
<ele>664.890686</ele>
<time>2012-04-30T09:10:18.011Z</time>
</trkpt>
<trkpt lat="40.6771400" lon="14.4817200">
<ele>667.298645</ele>
<time>2012-04-30T09:10:18.011Z</time>
</trkpt>
<trkpt lat="40.6770900" lon="14.4816800">
<ele>667.298645</ele>
<time>2012-04-30T09:10:18.011Z</time>
</trkpt>
<trkpt lat="40.6771100" lon="14.4816300">
<ele>671.626770</ele>
<time>2012-04-30T09:10:18.011Z</time>
</trkpt>
<trkpt lat="40.6771100" lon="14.4816100">
<ele>669.706543</ele>
<time>2012-04-30T09:10:18.011Z</time>
</trkpt>
<trkpt lat="40.6771100" lon="14.4816000">
<ele>673.547058</ele>
<time>2012-04-30T09:10:18.011Z</time>
</trkpt>
<trkpt lat="40.6771100" lon="14.4815900">
<ele>671.626770</ele>
<time>2012-04-30T09:10:18.011Z</time>
</trkpt>
<trkpt lat="40.6770800" lon="14.4815900">
<ele>671.139099</ele>
<time>2012-04-30T09:10:18.011Z</time>
</trkpt>
<trkpt lat="40.6770600" lon="14.4815900">
<ele>674.491882</ele>
<time>2012-04-30T09:10:18.011Z</time>
</trkpt>
<trkpt lat="40.6769100" lon="14.4816900">
<ele>681.715698</ele>
<time>2012-04-30T09:10:18.011Z</time>
</trkpt>
<trkpt lat="40.6768900" lon="14.4816900">
<ele>679.307739</ele>
<time>2012-04-30T09:10:18.011Z</time>
</trkpt>
<trkpt lat="40.6768600" lon="14.4816900">
<ele>682.660522</ele>
<time>2012-04-30T09:10:18.011Z</time>
</trkpt>
<trkpt lat="40.6767200" lon="14.4816600">
<ele>686.531494</ele>
<time>2012-04-30T09:10:18.011Z</time>
</trkpt>
<trkpt lat="40.6766700" lon="14.4814600">
<ele>691.316895</ele>
<time>2012-04-30T09:10:18.011Z</time>
</trkpt>
<trkpt lat="40.6766000" lon="14.4814000">
<ele>694.700134</ele>
<time>2012-04-30T09:10:18.011Z</time>
</trkpt>
<trkpt lat="40.6766100" lon="14.4814000">
<ele>698.052917</ele>
<time>2012-04-30T09:10:18.011Z</time>
</trkpt>
<trkpt lat="40.6767100" lon="14.4814100">
<ele>699.028320</ele>
<time>2012-04-30T09:10:18.011Z</time>
</trkpt>
<trkpt lat="40.6768700" lon="14.4813300">
<ele>702.381104</ele>
<time>2012-04-30T09:10:18.011Z</time>
</trkpt>
<trkpt lat="40.6769500" lon="14.4811100">
<ele>709.117188</ele>
<time>2012-04-30T09:10:18.011Z</time>
</trkpt>
<trkpt lat="40.6770800" lon="14.4809700">
<ele>712.469971</ele>
<time>2012-04-30T09:10:18.019Z</time>
</trkpt>
<trkpt lat="40.6771900" lon="14.4806700">
<ele>721.126282</ele>
<time>2012-04-30T09:10:18.019Z</time>
</trkpt>
<trkpt lat="40.6771400" lon="14.4805000">
<ele>724.021912</ele>
<time>2012-04-30T09:10:18.019Z</time>
</trkpt>
<trkpt lat="40.6770600" lon="14.4803900">
<ele>725.454529</ele>
<time>2012-04-30T09:10:18.019Z</time>
</trkpt>
<trkpt lat="40.6769200" lon="14.4805300">
<ele>731.702881</ele>
<time>2012-04-30T09:10:18.019Z</time>
</trkpt>
<trkpt lat="40.6768000" lon="14.4806000">
<ele>733.135437</ele>
<time>2012-04-30T09:10:18.019Z</time>
</trkpt>
<trkpt lat="40.6766300" lon="14.4806500">
<ele>739.871460</ele>
<time>2012-04-30T09:10:18.019Z</time>
</trkpt>
<trkpt lat="40.6763600" lon="14.4807000">
<ele>743.711975</ele>
<time>2012-04-30T09:10:18.019Z</time>
</trkpt>
<trkpt lat="40.6765300" lon="14.4805100">
<ele>748.527832</ele>
<time>2012-04-30T09:10:18.019Z</time>
</trkpt>
<trkpt lat="40.6765400" lon="14.4803900">
<ele>749.960388</ele>
<time>2012-04-30T09:10:18.019Z</time>
</trkpt>
<trkpt lat="40.6765300" lon="14.4803100">
<ele>753.800903</ele>
<time>2012-04-30T09:10:18.019Z</time>
</trkpt>
<trkpt lat="40.6765200" lon="14.4803100">
<ele>752.368286</ele>
<time>2012-04-30T09:10:18.019Z</time>
</trkpt>
<trkpt lat="40.6764500" lon="14.4803200">
<ele>755.721069</ele>
<time>2012-04-30T09:10:18.019Z</time>
</trkpt>
<trkpt lat="40.6764500" lon="14.4802200">
<ele>756.696533</ele>
<time>2012-04-30T09:10:18.019Z</time>
</trkpt>
<trkpt lat="40.6764200" lon="14.4801000">
<ele>759.592102</ele>
<time>2012-04-30T09:10:18.019Z</time>
</trkpt>
<trkpt lat="40.6762300" lon="14.4803000">
<ele>764.377441</ele>
<time>2012-04-30T09:10:18.019Z</time>
</trkpt>
<trkpt lat="40.6761800" lon="14.4803500">
<ele>767.760681</ele>
<time>2012-04-30T09:10:18.019Z</time>
</trkpt>
<trkpt lat="40.6761500" lon="14.4802600">
<ele>769.193298</ele>
<time>2012-04-30T09:10:18.019Z</time>
</trkpt>
<trkpt lat="40.6761100" lon="14.4802200">
<ele>772.546082</ele>
<time>2012-04-30T09:10:18.019Z</time>
</trkpt>
<trkpt lat="40.6760900" lon="14.4801600">
<ele>774.466309</ele>
<time>2012-04-30T09:10:18.019Z</time>
</trkpt>
<trkpt lat="40.6759900" lon="14.4800400">
<ele>777.849609</ele>
<time>2012-04-30T09:10:18.019Z</time>
</trkpt>
<trkpt lat="40.6759700" lon="14.4801100">
<ele>778.337280</ele>
<time>2012-04-30T09:10:18.019Z</time>
</trkpt>
<trkpt lat="40.6759600" lon="14.4802000">
<ele>780.714661</ele>
<time>2012-04-30T09:10:18.019Z</time>
</trkpt>
<trkpt lat="40.6758900" lon="14.4802600">
<ele>782.665466</ele>
<time>2012-04-30T09:10:18.019Z</time>
</trkpt>
<trkpt lat="40.6757800" lon="14.4802800">
<ele>785.042908</ele>
<time>2012-04-30T09:10:18.019Z</time>
</trkpt>
<trkpt lat="40.6757300" lon="14.4800600">
<ele>789.858704</ele>
<time>2012-04-30T09:10:18.019Z</time>
</trkpt>
<trkpt lat="40.6756500" lon="14.4799900">
<ele>792.266663</ele>
<time>2012-04-30T09:10:18.019Z</time>
</trkpt>
<trkpt lat="40.6755400" lon="14.4799200">
<ele>795.619446</ele>
<time>2012-04-30T09:10:18.019Z</time>
</trkpt>
<trkpt lat="40.6754300" lon="14.4799100">
<ele>796.107117</ele>
<time>2012-04-30T09:10:18.019Z</time>
</trkpt>
<trkpt lat="40.6753300" lon="14.4799100">
<ele>799.459900</ele>
<time>2012-04-30T09:10:18.019Z</time>
</trkpt>
<trkpt lat="40.6752900" lon="14.4799700">
<ele>802.843201</ele>
<time>2012-04-30T09:10:18.019Z</time>
</trkpt>
<trkpt lat="40.6753600" lon="14.4800200">
<ele>805.251099</ele>
<time>2012-04-30T09:10:18.019Z</time>
</trkpt>
<trkpt lat="40.6753600" lon="14.4800700">
<ele>808.116272</ele>
<time>2012-04-30T09:10:18.019Z</time>
</trkpt>
<trkpt lat="40.6753300" lon="14.4802000">
<ele>811.956665</ele>
<time>2012-04-30T09:10:18.019Z</time>
</trkpt>
<trkpt lat="40.6752900" lon="14.4802600">
<ele>815.340027</ele>
<time>2012-04-30T09:10:18.019Z</time>
</trkpt>
<trkpt lat="40.6751600" lon="14.4802700">
<ele>821.588379</ele>
<time>2012-04-30T09:10:18.019Z</time>
</trkpt>
<trkpt lat="40.6750900" lon="14.4802100">
<ele>823.508667</ele>
<time>2012-04-30T09:10:18.019Z</time>
</trkpt>
<trkpt lat="40.6750400" lon="14.4802400">
<ele>826.404236</ele>
<time>2012-04-30T09:10:18.019Z</time>
</trkpt>
<trkpt lat="40.6749700" lon="14.4801800">
<ele>829.757080</ele>
<time>2012-04-30T09:10:18.019Z</time>
</trkpt>
<trkpt lat="40.6748500" lon="14.4801600">
<ele>833.109863</ele>
<time>2012-04-30T09:10:18.019Z</time>
</trkpt>
<trkpt lat="40.6747900" lon="14.4800800">
<ele>834.572937</ele>
<time>2012-04-30T09:10:18.019Z</time>
</trkpt>
<trkpt lat="40.6747300" lon="14.4800700">
<ele>837.925720</ele>
<time>2012-04-30T09:10:18.019Z</time>
</trkpt>
<trkpt lat="40.6745200" lon="14.4799800">
<ele>841.766174</ele>
<time>2012-04-30T09:10:18.019Z</time>
</trkpt>
<trkpt lat="40.6744400" lon="14.4799200">
<ele>843.686401</ele>
<time>2012-04-30T09:10:18.019Z</time>
</trkpt>
<trkpt lat="40.6745100" lon="14.4801600">
<ele>848.014526</ele>
<time>2012-04-30T09:10:18.019Z</time>
</trkpt>
<trkpt lat="40.6744700" lon="14.4802400">
<ele>849.447083</ele>
<time>2012-04-30T09:10:18.019Z</time>
</trkpt>
<trkpt lat="40.6745000" lon="14.4803000">
<ele>851.397827</ele>
<time>2012-04-30T09:10:18.019Z</time>
</trkpt>
<trkpt lat="40.6744300" lon="14.4804000">
<ele>854.262939</ele>
<time>2012-04-30T09:10:18.019Z</time>
</trkpt>
<trkpt lat="40.6743800" lon="14.4805700">
<ele>860.023682</ele>
<time>2012-04-30T09:10:18.019Z</time>
</trkpt>
<trkpt lat="40.6742800" lon="14.4806800">
<ele>860.999084</ele>
<time>2012-04-30T09:10:18.019Z</time>
</trkpt>
<trkpt lat="40.6742600" lon="14.4808000">
<ele>861.974426</ele>
<time>2012-04-30T09:10:18.019Z</time>
</trkpt>
<trkpt lat="40.6742100" lon="14.4809400">
<ele>865.814880</ele>
<time>2012-04-30T09:10:18.019Z</time>
</trkpt>
<trkpt lat="40.6741800" lon="14.4809800">
<ele>862.919312</ele>
<time>2012-04-30T09:10:18.019Z</time>
</trkpt>
<trkpt lat="40.6741800" lon="14.4809800">
<ele>865.814880</ele>
<time>2012-04-30T09:10:18.019Z</time>
</trkpt>
<trkpt lat="40.6741300" lon="14.4810800">
<ele>869.655334</ele>
<time>2012-04-30T09:10:18.019Z</time>
</trkpt>
<trkpt lat="40.6741200" lon="14.4810900">
<ele>867.247437</ele>
<time>2012-04-30T09:10:18.019Z</time>
</trkpt>
<trkpt lat="40.6740900" lon="14.4811000">
<ele>870.600281</ele>
<time>2012-04-30T09:10:18.019Z</time>
</trkpt>
<trkpt lat="40.6739800" lon="14.4811700">
<ele>870.600281</ele>
<time>2012-04-30T09:10:18.019Z</time>
</trkpt>
<trkpt lat="40.6738400" lon="14.4813300">
<ele>876.848633</ele>
<time>2012-04-30T09:10:18.019Z</time>
</trkpt>
<trkpt lat="40.6736700" lon="14.4814000">
<ele>876.848633</ele>
<time>2012-04-30T09:10:18.019Z</time>
</trkpt>
<trkpt lat="40.6736100" lon="14.4814000">
<ele>882.639832</ele>
<time>2012-04-30T09:10:18.019Z</time>
</trkpt>
<trkpt lat="40.6735900" lon="14.4814100">
<ele>882.152161</ele>
<time>2012-04-30T09:10:18.019Z</time>
</trkpt>
<trkpt lat="40.6735200" lon="14.4814600">
<ele>885.504944</ele>
<time>2012-04-30T09:10:18.019Z</time>
</trkpt>
<trkpt lat="40.6731900" lon="14.4814400">
<ele>892.728699</ele>
<time>2012-04-30T09:10:18.019Z</time>
</trkpt>
<trkpt lat="40.6729800" lon="14.4815200">
<ele>898.489441</ele>
<time>2012-04-30T09:10:18.019Z</time>
</trkpt>
<trkpt lat="40.6728900" lon="14.4815000">
<ele>899.464783</ele>
<time>2012-04-30T09:10:18.019Z</time>
</trkpt>
<trkpt lat="40.6727800" lon="14.4815600">
<ele>903.305298</ele>
<time>2012-04-30T09:10:18.019Z</time>
</trkpt>
<trkpt lat="40.6726300" lon="14.4815900">
<ele>906.170410</ele>
<time>2012-04-30T09:10:18.019Z</time>
</trkpt>
<trkpt lat="40.6725500" lon="14.4815800">
<ele>907.145752</ele>
<time>2012-04-30T09:10:18.019Z</time>
</trkpt>
<trkpt lat="40.6724600" lon="14.4816100">
<ele>910.986267</ele>
<time>2012-04-30T09:10:18.019Z</time>
</trkpt>
<trkpt lat="40.6722200" lon="14.4815800">
<ele>914.339050</ele>
<time>2012-04-30T09:10:18.019Z</time>
</trkpt>
<trkpt lat="40.6720000" lon="14.4815700">
<ele>920.130249</ele>
<time>2012-04-30T09:10:17.993Z</time>
</trkpt>
<trkpt lat="40.6720900" lon="14.4817000">
<ele>923.483032</ele>
<time>2012-04-30T09:10:17.993Z</time>
</trkpt>
<trkpt lat="40.6720200" lon="14.4818200">
<ele>926.835876</ele>
<time>2012-04-30T09:10:17.993Z</time>
</trkpt>
<trkpt lat="40.6719200" lon="14.4818900">
<ele>929.731445</ele>
<time>2012-04-30T09:10:17.993Z</time>
</trkpt>
<trkpt lat="40.6718300" lon="14.4820500">
<ele>931.164001</ele>
<time>2012-04-30T09:10:17.993Z</time>
</trkpt>
<trkpt lat="40.6716500" lon="14.4821400">
<ele>932.139343</ele>
<time>2012-04-30T09:10:17.993Z</time>
</trkpt>
<trkpt lat="40.6714800" lon="14.4822300">
<ele>934.547302</ele>
<time>2012-04-30T09:10:17.993Z</time>
</trkpt>
<trkpt lat="40.6714600" lon="14.4822400">
<ele>935.979858</ele>
<time>2012-04-30T09:10:17.993Z</time>
</trkpt>
<trkpt lat="40.6713800" lon="14.4823000">
<ele>938.387756</ele>
<time>2012-04-30T09:10:17.993Z</time>
</trkpt>
<trkpt lat="40.6712800" lon="14.4823800">
<ele>939.820313</ele>
<time>2012-04-30T09:10:17.993Z</time>
</trkpt>
<trkpt lat="40.6711500" lon="14.4824000">
<ele>942.715881</ele>
<time>2012-04-30T09:10:17.993Z</time>
</trkpt>
<trkpt lat="40.6711700" lon="14.4822600">
<ele>944.148499</ele>
<time>2012-04-30T09:10:17.993Z</time>
</trkpt>
<trkpt lat="40.6711900" lon="14.4822000">
<ele>947.531738</ele>
<time>2012-04-30T09:10:17.993Z</time>
</trkpt>
<trkpt lat="40.6712400" lon="14.4821200">
<ele>950.396912</ele>
<time>2012-04-30T09:10:17.993Z</time>
</trkpt>
<trkpt lat="40.6712900" lon="14.4820400">
<ele>952.804810</ele>
<time>2012-04-30T09:10:17.993Z</time>
</trkpt>
<trkpt lat="40.6713800" lon="14.4819200">
<ele>956.157593</ele>
<time>2012-04-30T09:10:17.993Z</time>
</trkpt>
<trkpt lat="40.6715000" lon="14.4818100">
<ele>959.053223</ele>
<time>2012-04-30T09:10:17.993Z</time>
</trkpt>
<trkpt lat="40.6714300" lon="14.4818000">
<ele>962.893738</ele>
<time>2012-04-30T09:10:17.993Z</time>
</trkpt>
<trkpt lat="40.6713500" lon="14.4818100">
<ele>966.276917</ele>
<time>2012-04-30T09:10:17.993Z</time>
</trkpt>
<trkpt lat="40.6713200" lon="14.4818000">
<ele>966.734131</ele>
<time>2012-04-30T09:10:17.993Z</time>
</trkpt>
<trkpt lat="40.6713400" lon="14.4817700">
<ele>968.197205</ele>
<time>2012-04-30T09:10:17.993Z</time>
</trkpt>
<trkpt lat="40.6714100" lon="14.4816700">
<ele>971.549988</ele>
<time>2012-04-30T09:10:17.993Z</time>
</trkpt>
<trkpt lat="40.6714100" lon="14.4815400">
<ele>974.445618</ele>
<time>2012-04-30T09:10:17.993Z</time>
</trkpt>
<trkpt lat="40.6713800" lon="14.4815600">
<ele>976.365845</ele>
<time>2012-04-30T09:10:17.993Z</time>
</trkpt>
<trkpt lat="40.6712900" lon="14.4815400">
<ele>978.773743</ele>
<time>2012-04-30T09:10:17.993Z</time>
</trkpt>
<trkpt lat="40.6713200" lon="14.4814700">
<ele>980.693970</ele>
<time>2012-04-30T09:10:17.993Z</time>
</trkpt>
<trkpt lat="40.6713000" lon="14.4814200">
<ele>982.126526</ele>
<time>2012-04-30T09:10:17.993Z</time>
</trkpt>
<trkpt lat="40.6712900" lon="14.4813700">
<ele>982.126526</ele>
<time>2012-04-30T09:10:17.993Z</time>
</trkpt>
<trkpt lat="40.6712700" lon="14.4812800">
<ele>984.046814</ele>
<time>2012-04-30T09:10:17.993Z</time>
</trkpt>
<trkpt lat="40.6712400" lon="14.4812200">
<ele>986.942383</ele>
<time>2012-04-30T09:10:17.993Z</time>
</trkpt>
<trkpt lat="40.6712000" lon="14.4810900">
<ele>989.807495</ele>
<time>2012-04-30T09:10:17.993Z</time>
</trkpt>
<trkpt lat="40.6711600" lon="14.4811300">
<ele>993.190796</ele>
<time>2012-04-30T09:10:17.993Z</time>
</trkpt>
<trkpt lat="40.6711400" lon="14.4812400">
<ele>996.543579</ele>
<time>2012-04-30T09:10:17.993Z</time>
</trkpt>
<trkpt lat="40.6710400" lon="14.4813200">
<ele>999.439209</ele>
<time>2012-04-30T09:10:17.993Z</time>
</trkpt>
<trkpt lat="40.6710400" lon="14.4811800">
<ele>1002.791992</ele>
<time>2012-04-30T09:10:17.993Z</time>
</trkpt>
<trkpt lat="40.6710000" lon="14.4810400">
<ele>1004.712280</ele>
<time>2012-04-30T09:10:17.993Z</time>
</trkpt>
<trkpt lat="40.6709600" lon="14.4809300">
<ele>1006.144775</ele>
<time>2012-04-30T09:10:17.993Z</time>
</trkpt>
<trkpt lat="40.6709200" lon="14.4808400">
<ele>1009.040405</ele>
<time>2012-04-30T09:10:17.993Z</time>
</trkpt>
<trkpt lat="40.6709600" lon="14.4807000">
<ele>1012.393188</ele>
<time>2012-04-30T09:10:17.993Z</time>
</trkpt>
<trkpt lat="40.6709400" lon="14.4806000">
<ele>1014.313477</ele>
<time>2012-04-30T09:10:17.993Z</time>
</trkpt>
<trkpt lat="40.6709000" lon="14.4805100">
<ele>1017.209045</ele>
<time>2012-04-30T09:10:17.993Z</time>
</trkpt>
<trkpt lat="40.6709400" lon="14.4804100">
<ele>1019.129333</ele>
<time>2012-04-30T09:10:17.993Z</time>
</trkpt>
<trkpt lat="40.6708400" lon="14.4804000">
<ele>1022.512573</ele>
<time>2012-04-30T09:10:17.993Z</time>
</trkpt>
<trkpt lat="40.6707500" lon="14.4805600">
<ele>1025.377686</ele>
<time>2012-04-30T09:10:17.993Z</time>
</trkpt>
<trkpt lat="40.6707300" lon="14.4806800">
<ele>1029.218140</ele>
<time>2012-04-30T09:10:17.993Z</time>
</trkpt>
<trkpt lat="40.6706400" lon="14.4807900">
<ele>1031.138428</ele>
<time>2012-04-30T09:10:17.993Z</time>
</trkpt>
<trkpt lat="40.6705400" lon="14.4807900">
<ele>1034.034058</ele>
<time>2012-04-30T09:10:17.993Z</time>
</trkpt>
<trkpt lat="40.6704200" lon="14.4807800">
<ele>1036.929565</ele>
<time>2012-04-30T09:10:17.993Z</time>
</trkpt>
<trkpt lat="40.6703400" lon="14.4807700">
<ele>1039.794678</ele>
<time>2012-04-30T09:10:17.993Z</time>
</trkpt>
<trkpt lat="40.6704000" lon="14.4807200">
<ele>1041.257690</ele>
<time>2012-04-30T09:10:17.993Z</time>
</trkpt>
<trkpt lat="40.6704400" lon="14.4806200">
<ele>1044.610596</ele>
<time>2012-04-30T09:10:17.993Z</time>
</trkpt>
<trkpt lat="40.6704300" lon="14.4804800">
<ele>1046.043091</ele>
<time>2012-04-30T09:10:17.993Z</time>
</trkpt>
<trkpt lat="40.6704300" lon="14.4803900">
<ele>1048.938721</ele>
<time>2012-04-30T09:10:17.993Z</time>
</trkpt>
<trkpt lat="40.6704400" lon="14.4802900">
<ele>1052.291504</ele>
<time>2012-04-30T09:10:17.993Z</time>
</trkpt>
<trkpt lat="40.6703400" lon="14.4804200">
<ele>1055.187134</ele>
<time>2012-04-30T09:10:17.993Z</time>
</trkpt>
<trkpt lat="40.6702500" lon="14.4805100">
<ele>1055.674805</ele>
<time>2012-04-30T09:10:17.993Z</time>
</trkpt>
<trkpt lat="40.6701500" lon="14.4804800">
<ele>1057.595093</ele>
<time>2012-04-30T09:10:17.993Z</time>
</trkpt>
<trkpt lat="40.6700200" lon="14.4805000">
<ele>1060.947876</ele>
<time>2012-04-30T09:10:17.993Z</time>
</trkpt>
<trkpt lat="40.6700100" lon="14.4804300">
<ele>1062.380371</ele>
<time>2012-04-30T09:10:17.993Z</time>
</trkpt>
<trkpt lat="40.6700400" lon="14.4804100">
<ele>1064.788330</ele>
<time>2012-04-30T09:10:17.993Z</time>
</trkpt>
<trkpt lat="40.6701100" lon="14.4803400">
<ele>1066.708496</ele>
<time>2012-04-30T09:10:17.993Z</time>
</trkpt>
<trkpt lat="40.6700700" lon="14.4803300">
<ele>1070.091797</ele>
<time>2012-04-30T09:10:17.993Z</time>
</trkpt>
<trkpt lat="40.6700100" lon="14.4803100">
<ele>1073.444702</ele>
<time>2012-04-30T09:10:17.993Z</time>
</trkpt>
<trkpt lat="40.6699700" lon="14.4802500">
<ele>1076.340210</ele>
<time>2012-04-30T09:10:17.993Z</time>
</trkpt>
<trkpt lat="40.6700000" lon="14.4801700">
<ele>1078.748169</ele>
<time>2012-04-30T09:10:17.993Z</time>
</trkpt>
<trkpt lat="40.6700300" lon="14.4801000">
<ele>1080.668457</ele>
<time>2012-04-30T09:10:17.993Z</time>
</trkpt>
<trkpt lat="40.6700000" lon="14.4800200">
<ele>1083.533447</ele>
<time>2012-04-30T09:10:17.993Z</time>
</trkpt>
<trkpt lat="40.6699400" lon="14.4800900">
<ele>1086.916748</ele>
<time>2012-04-30T09:10:17.993Z</time>
</trkpt>
<trkpt lat="40.6697600" lon="14.4801000">
<ele>1090.269653</ele>
<time>2012-04-30T09:10:17.993Z</time>
</trkpt>
<trkpt lat="40.6696800" lon="14.4800800">
<ele>1093.165161</ele>
<time>2012-04-30T09:10:17.993Z</time>
</trkpt>
<trkpt lat="40.6695400" lon="14.4801200">
<ele>1095.573120</ele>
<time>2012-04-30T09:10:17.993Z</time>
</trkpt>
<trkpt lat="40.6694700" lon="14.4801300">
<ele>1096.030273</ele>
<time>2012-04-30T09:10:17.993Z</time>
</trkpt>
<trkpt lat="40.6693500" lon="14.4802200">
<ele>1097.950562</ele>
<time>2012-04-30T09:10:17.993Z</time>
</trkpt>
<trkpt lat="40.6692600" lon="14.4802800">
<ele>1101.333862</ele>
<time>2012-04-30T09:10:17.993Z</time>
</trkpt>
<trkpt lat="40.6691300" lon="14.4802900">
<ele>1103.741699</ele>
<time>2012-04-30T09:10:17.993Z</time>
</trkpt>
<trkpt lat="40.6689900" lon="14.4803200">
<ele>1107.094604</ele>
<time>2012-04-30T09:10:17.993Z</time>
</trkpt>
<trkpt lat="40.6688800" lon="14.4802500">
<ele>1110.447388</ele>
<time>2012-04-30T09:10:17.993Z</time>
</trkpt>
<trkpt lat="40.6687600" lon="14.4803300">
<ele>1111.910400</ele>
<time>2012-04-30T09:10:17.993Z</time>
</trkpt>
<trkpt lat="40.6687500" lon="14.4803400">
<ele>1112.367554</ele>
<time>2012-04-30T09:10:17.993Z</time>
</trkpt>
<trkpt lat="40.6686600" lon="14.4804200">
<ele>1114.775513</ele>
<time>2012-04-30T09:10:17.993Z</time>
</trkpt>
<trkpt lat="40.6686500" lon="14.4804200">
<ele>1115.263184</ele>
<time>2012-04-30T09:10:17.993Z</time>
</trkpt>
<trkpt lat="40.6685600" lon="14.4805000">
<ele>1117.183472</ele>
<time>2012-04-30T09:10:17.993Z</time>
</trkpt>
<trkpt lat="40.6684400" lon="14.4805200">
<ele>1120.566650</ele>
<time>2012-04-30T09:10:17.993Z</time>
</trkpt>
<trkpt lat="40.6683900" lon="14.4805600">
<ele>1122.944092</ele>
<time>2012-04-30T09:10:17.993Z</time>
</trkpt>
<trkpt lat="40.6683400" lon="14.4806100">
<ele>1122.486938</ele>
<time>2012-04-30T09:10:17.993Z</time>
</trkpt>
<trkpt lat="40.6683000" lon="14.4807500">
<ele>1124.894897</ele>
<time>2012-04-30T09:10:17.993Z</time>
</trkpt>
<trkpt lat="40.6682200" lon="14.4808900">
<ele>1126.815063</ele>
<time>2012-04-30T09:10:17.993Z</time>
</trkpt>
<trkpt lat="40.6681700" lon="14.4810600">
<ele>1128.735352</ele>
<time>2012-04-30T09:10:17.993Z</time>
</trkpt>
<trkpt lat="40.6681000" lon="14.4812500">
<ele>1131.600464</ele>
<time>2012-04-30T09:10:17.993Z</time>
</trkpt>
<trkpt lat="40.6680900" lon="14.4813800">
<ele>1131.600464</ele>
<time>2012-04-30T09:10:17.993Z</time>
</trkpt>
<trkpt lat="40.6680800" lon="14.4813900">
<ele>1133.063477</ele>
<time>2012-04-30T09:10:17.993Z</time>
</trkpt>
<trkpt lat="40.6680700" lon="14.4814100">
<ele>1133.063477</ele>
<time>2012-04-30T09:10:17.993Z</time>
</trkpt>
<trkpt lat="40.6678900" lon="14.4815900">
<ele>1133.063477</ele>
<time>2012-04-30T09:10:17.993Z</time>
</trkpt>
<trkpt lat="40.6677386" lon="14.4818362">
<ele>1133.063477</ele>
<time>2012-04-30T09:10:17.993Z</time>
</trkpt>
<trkpt lat="40.6676450" lon="14.4820025">
<ele>1134.983765</ele>
<time>2012-04-30T09:10:17.993Z</time>
</trkpt>
<trkpt lat="40.6675400" lon="14.4822500">
<ele>1137.391724</ele>
<time>2012-04-30T09:10:17.993Z</time>
</trkpt>
<trkpt lat="40.6674700" lon="14.4824800">
<ele>1139.311890</ele>
<time>2012-04-30T09:10:17.993Z</time>
</trkpt>
<trkpt lat="40.6674100" lon="14.4826600">
<ele>1140.744507</ele>
<time>2012-04-30T09:10:17.993Z</time>
</trkpt>
<trkpt lat="40.6674000" lon="14.4827300">
<ele>1142.664673</ele>
<time>2012-04-30T09:10:17.993Z</time>
</trkpt>
<trkpt lat="40.6673400" lon="14.4828900">
<ele>1143.640137</ele>
<time>2012-04-30T09:10:17.993Z</time>
</trkpt>
<trkpt lat="40.6673000" lon="14.4830600">
<ele>1144.097290</ele>
<time>2012-04-30T09:10:17.993Z</time>
</trkpt>
<trkpt lat="40.6672600" lon="14.4832100">
<ele>1145.560303</ele>
<time>2012-04-30T09:10:17.993Z</time>
</trkpt>
<trkpt lat="40.6672200" lon="14.4834000">
<ele>1146.505249</ele>
<time>2012-04-30T09:10:17.993Z</time>
</trkpt>
<trkpt lat="40.6671567" lon="14.4835797">
<ele>1147.937744</ele>
<time>2012-04-30T09:10:17.993Z</time>
</trkpt>
<trkpt lat="40.6671160" lon="14.4837513">
<ele>1149.400757</ele>
<time>2012-04-30T09:10:17.993Z</time>
</trkpt>
<trkpt lat="40.6671000" lon="14.4839100">
<ele>1151.321045</ele>
<time>2012-04-30T09:10:17.993Z</time>
</trkpt>
<trkpt lat="40.6670500" lon="14.4840400">
<ele>1154.673828</ele>
<time>2012-04-30T09:10:17.993Z</time>
</trkpt>
<trkpt lat="40.6669800" lon="14.4842400">
<ele>1156.136963</ele>
<time>2012-04-30T09:10:17.993Z</time>
</trkpt>
<trkpt lat="40.6669500" lon="14.4843700">
<ele>1157.081787</ele>
<time>2012-04-30T09:10:17.993Z</time>
</trkpt>
<trkpt lat="40.6669200" lon="14.4845000">
<ele>1158.514282</ele>
<time>2012-04-30T09:10:17.993Z</time>
</trkpt>
<trkpt lat="40.6668600" lon="14.4846000">
<ele>1160.922241</ele>
<time>2012-04-30T09:10:17.993Z</time>
</trkpt>
<trkpt lat="40.6667700" lon="14.4848100">
<ele>1159.977295</ele>
<time>2012-04-30T09:10:17.993Z</time>
</trkpt>
<trkpt lat="40.6666400" lon="14.4850600">
<ele>1161.409912</ele>
<time>2012-04-30T09:10:17.993Z</time>
</trkpt>
<trkpt lat="40.6665200" lon="14.4853300">
<ele>1161.897583</ele>
<time>2012-04-30T09:10:17.993Z</time>
</trkpt>
<trkpt lat="40.6664300" lon="14.4855500">
<ele>1161.897583</ele>
<time>2012-04-30T09:10:17.993Z</time>
</trkpt>
<trkpt lat="40.6663200" lon="14.4857600">
<ele>1162.842529</ele>
<time>2012-04-30T09:10:17.993Z</time>
</trkpt>
<trkpt lat="40.6662400" lon="14.4859700">
<ele>1162.842529</ele>
<time>2012-04-30T09:10:17.993Z</time>
</trkpt>
<trkpt lat="40.6661300" lon="14.4862200">
<ele>1162.842529</ele>
<time>2012-04-30T09:10:17.993Z</time>
</trkpt>
<trkpt lat="40.6660500" lon="14.4864300">
<ele>1163.817871</ele>
<time>2012-04-30T09:10:17.993Z</time>
</trkpt>
<trkpt lat="40.6660500" lon="14.4866000">
<ele>1165.250366</ele>
<time>2012-04-30T09:10:17.993Z</time>
</trkpt>
<trkpt lat="40.6660200" lon="14.4867800">
<ele>1167.170654</ele>
<time>2012-04-30T09:10:17.993Z</time>
</trkpt>
<trkpt lat="40.6659600" lon="14.4869600">
<ele>1168.633667</ele>
<time>2012-04-30T09:10:17.993Z</time>
</trkpt>
<trkpt lat="40.6659200" lon="14.4870800">
<ele>1171.011108</ele>
<time>2012-04-30T09:10:17.993Z</time>
</trkpt>
<trkpt lat="40.6659000" lon="14.4872100">
<ele>1173.419067</ele>
<time>2012-04-30T09:10:17.993Z</time>
</trkpt>
<trkpt lat="40.6658700" lon="14.4872900">
<ele>1175.826904</ele>
<time>2012-04-30T09:10:17.993Z</time>
</trkpt>
<trkpt lat="40.6658700" lon="14.4872900">
<ele>1175.826904</ele>
<time>2012-04-30T09:10:17.993Z</time>
</trkpt>
<trkpt lat="40.6658200" lon="14.4874100">
<ele>1176.802246</ele>
<time>2012-04-30T09:10:17.993Z</time>
</trkpt>
<trkpt lat="40.6657400" lon="14.4875100">
<ele>1174.882080</ele>
<time>2012-04-30T09:10:17.993Z</time>
</trkpt>
<trkpt lat="40.6656800" lon="14.4877200">
<ele>1175.339355</ele>
<time>2012-04-30T09:10:17.993Z</time>
</trkpt>
<trkpt lat="40.6656600" lon="14.4878200">
<ele>1176.802246</ele>
<time>2012-04-30T09:10:17.993Z</time>
</trkpt>
<trkpt lat="40.6656200" lon="14.4878900">
<ele>1177.747192</ele>
<time>2012-04-30T09:10:17.993Z</time>
</trkpt>
<trkpt lat="40.6655800" lon="14.4880200">
<ele>1179.667480</ele>
<time>2012-04-30T09:10:17.993Z</time>
</trkpt>
<trkpt lat="40.6655300" lon="14.4881200">
<ele>1180.155029</ele>
<time>2012-04-30T09:10:17.993Z</time>
</trkpt>
<trkpt lat="40.6654500" lon="14.4882500">
<ele>1182.075317</ele>
<time>2012-04-30T09:10:17.993Z</time>
</trkpt>
<trkpt lat="40.6654200" lon="14.4883300">
<ele>1182.563110</ele>
<time>2012-04-30T09:10:17.993Z</time>
</trkpt>
<trkpt lat="40.6653700" lon="14.4885000">
<ele>1183.995605</ele>
<time>2012-04-30T09:10:17.993Z</time>
</trkpt>
<trkpt lat="40.6653200" lon="14.4886500">
<ele>1187.836060</ele>
<time>2012-04-30T09:10:17.993Z</time>
</trkpt>
<trkpt lat="40.6652400" lon="14.4888100">
<ele>1188.811401</ele>
<time>2012-04-30T09:10:17.993Z</time>
</trkpt>
<trkpt lat="40.6651500" lon="14.4889700">
<ele>1188.811401</ele>
<time>2012-04-30T09:10:17.993Z</time>
</trkpt>
<trkpt lat="40.6650500" lon="14.4891500">
<ele>1190.731689</ele>
<time>2012-04-30T09:10:17.993Z</time>
</trkpt>
<trkpt lat="40.6649900" lon="14.4892600">
<ele>1191.676514</ele>
<time>2012-04-30T09:10:17.993Z</time>
</trkpt>
<trkpt lat="40.6649100" lon="14.4894400">
<ele>1192.651855</ele>
<time>2012-04-30T09:10:17.993Z</time>
</trkpt>
<trkpt lat="40.6648000" lon="14.4896500">
<ele>1193.627319</ele>
<time>2012-04-30T09:10:17.993Z</time>
</trkpt>
<trkpt lat="40.6646800" lon="14.4897300">
<ele>1191.676514</ele>
<time>2012-04-30T09:10:17.993Z</time>
</trkpt>
<trkpt lat="40.6645500" lon="14.4898800">
<ele>1192.651855</ele>
<time>2012-04-30T09:10:17.993Z</time>
</trkpt>
<trkpt lat="40.6644600" lon="14.4900600">
<ele>1193.627319</ele>
<time>2012-04-30T09:10:17.993Z</time>
</trkpt>
<trkpt lat="40.6643700" lon="14.4901800">
<ele>1192.164307</ele>
<time>2012-04-30T09:10:17.993Z</time>
</trkpt>
<trkpt lat="40.6642300" lon="14.4902900">
<ele>1191.219360</ele>
<time>2012-04-30T09:10:17.993Z</time>
</trkpt>
<trkpt lat="40.6641200" lon="14.4904400">
<ele>1190.731689</ele>
<time>2012-04-30T09:10:17.993Z</time>
</trkpt>
<trkpt lat="40.6640500" lon="14.4906200">
<ele>1192.651855</ele>
<time>2012-04-30T09:10:17.993Z</time>
</trkpt>
<trkpt lat="40.6640400" lon="14.4907500">
<ele>1193.627319</ele>
<time>2012-04-30T09:10:17.993Z</time>
</trkpt>
<trkpt lat="40.6638900" lon="14.4908200">
<ele>1190.731689</ele>
<time>2012-04-30T09:10:17.993Z</time>
</trkpt>
<trkpt lat="40.6636900" lon="14.4909100">
<ele>1188.323730</ele>
<time>2012-04-30T09:10:17.993Z</time>
</trkpt>
<trkpt lat="40.6635100" lon="14.4909800">
<ele>1186.403442</ele>
<time>2012-04-30T09:10:17.993Z</time>
</trkpt>
<trkpt lat="40.6633100" lon="14.4910700">
<ele>1185.428101</ele>
<time>2012-04-30T09:10:17.993Z</time>
</trkpt>
<trkpt lat="40.6630900" lon="14.4912000">
<ele>1185.915894</ele>
<time>2012-04-30T09:10:17.993Z</time>
</trkpt>
<trkpt lat="40.6629000" lon="14.4915100">
<ele>1187.378906</ele>
<time>2012-04-30T09:10:17.993Z</time>
</trkpt>
<trkpt lat="40.6628500" lon="14.4916000">
<ele>1188.323730</ele>
<time>2012-04-30T09:10:17.993Z</time>
</trkpt>
<trkpt lat="40.6627200" lon="14.4918000">
<ele>1189.756348</ele>
<time>2012-04-30T09:10:17.993Z</time>
</trkpt>
<trkpt lat="40.6626400" lon="14.4919600">
<ele>1191.219360</ele>
<time>2012-04-30T09:10:17.993Z</time>
</trkpt>
<trkpt lat="40.6625800" lon="14.4920600">
<ele>1193.139648</ele>
<time>2012-04-30T09:10:17.993Z</time>
</trkpt>
<trkpt lat="40.6625500" lon="14.4922000">
<ele>1195.547485</ele>
<time>2012-04-30T09:10:17.993Z</time>
</trkpt>
<trkpt lat="40.6625200" lon="14.4924100">
<ele>1197.955444</ele>
<time>2012-04-30T09:10:17.993Z</time>
</trkpt>
<trkpt lat="40.6625000" lon="14.4926400">
<ele>1200.820557</ele>
<time>2012-04-30T09:10:17.993Z</time>
</trkpt>
<trkpt lat="40.6624800" lon="14.4928300">
<ele>1202.253052</ele>
<time>2012-04-30T09:10:17.993Z</time>
</trkpt>
<trkpt lat="40.6624148" lon="14.4930211">
<ele>1204.661011</ele>
<time>2012-04-30T09:10:17.993Z</time>
</trkpt>
<trkpt lat="40.6623416" lon="14.4932142">
<ele>1206.124146</ele>
<time>2012-04-30T09:10:17.993Z</time>
</trkpt>
<trkpt lat="40.6622724" lon="14.4933697">
<ele>1207.556641</ele>
<time>2012-04-30T09:10:17.993Z</time>
</trkpt>
<trkpt lat="40.6622300" lon="14.4935900">
<ele>1208.989258</ele>
<time>2012-04-30T09:10:17.993Z</time>
</trkpt>
<trkpt lat="40.6621300" lon="14.4938000">
<ele>1209.964600</ele>
<time>2012-04-30T09:10:17.993Z</time>
</trkpt>
<trkpt lat="40.6620200" lon="14.4939700">
<ele>1210.452271</ele>
<time>2012-04-30T09:10:17.993Z</time>
</trkpt>
<trkpt lat="40.6618900" lon="14.4941400">
<ele>1211.397095</ele>
<time>2012-04-30T09:10:17.993Z</time>
</trkpt>
<trkpt lat="40.6617400" lon="14.4943400">
<ele>1213.317383</ele>
<time>2012-04-30T09:10:17.993Z</time>
</trkpt>
<trkpt lat="40.6615900" lon="14.4944600">
<ele>1213.317383</ele>
<time>2012-04-30T09:10:17.993Z</time>
</trkpt>
<trkpt lat="40.6614100" lon="14.4945700">
<ele>1213.805054</ele>
<time>2012-04-30T09:10:17.993Z</time>
</trkpt>
<trkpt lat="40.6613800" lon="14.4946000">
<ele>1212.829712</ele>
<time>2012-04-30T09:10:17.993Z</time>
</trkpt>
<trkpt lat="40.6612200" lon="14.4946900">
<ele>1214.292725</ele>
<time>2012-04-30T09:10:17.993Z</time>
</trkpt>
<trkpt lat="40.6611400" lon="14.4947400">
<ele>1214.292725</ele>
<time>2012-04-30T09:10:17.993Z</time>
</trkpt>
<trkpt lat="40.6609700" lon="14.4949100">
<ele>1213.805054</ele>
<time>2012-04-30T09:10:17.993Z</time>
</trkpt>
<trkpt lat="40.6609400" lon="14.4949500">
<ele>1214.749878</ele>
<time>2012-04-30T09:10:17.993Z</time>
</trkpt>
<trkpt lat="40.6608100" lon="14.4950800">
<ele>1213.805054</ele>
<time>2012-04-30T09:10:17.993Z</time>
</trkpt>
<trkpt lat="40.6606100" lon="14.4951900">
<ele>1216.212891</ele>
<time>2012-04-30T09:10:17.993Z</time>
</trkpt>
<trkpt lat="40.6604700" lon="14.4952900">
<ele>1216.212891</ele>
<time>2012-04-30T09:10:17.993Z</time>
</trkpt>
<trkpt lat="40.6602100" lon="14.4951800">
<ele>1217.157837</ele>
<time>2012-04-30T09:10:17.993Z</time>
</trkpt>
<trkpt lat="40.6601500" lon="14.4951400">
<ele>1216.700684</ele>
<time>2012-04-30T09:10:17.993Z</time>
</trkpt>
<trkpt lat="40.6599600" lon="14.4951000">
<ele>1218.133179</ele>
<time>2012-04-30T09:10:17.993Z</time>
</trkpt>
<trkpt lat="40.6599200" lon="14.4950800">
<ele>1219.078125</ele>
<time>2012-04-30T09:10:17.993Z</time>
</trkpt>
<trkpt lat="40.6599000" lon="14.4950700">
<ele>1217.157837</ele>
<time>2012-04-30T09:10:17.993Z</time>
</trkpt>
<trkpt lat="40.6597300" lon="14.4949800">
<ele>1218.620850</ele>
<time>2012-04-30T09:10:17.993Z</time>
</trkpt>
<trkpt lat="40.6595800" lon="14.4948900">
<ele>1220.541138</ele>
<time>2012-04-30T09:10:17.993Z</time>
</trkpt>
<trkpt lat="40.6594600" lon="14.4948900">
<ele>1220.053467</ele>
<time>2012-04-30T09:10:17.993Z</time>
</trkpt>
<trkpt lat="40.6592500" lon="14.4950900">
<ele>1220.541138</ele>
<time>2012-04-30T09:10:17.993Z</time>
</trkpt>
<trkpt lat="40.6591200" lon="14.4952300">
<ele>1218.133179</ele>
<time>2012-04-30T09:10:17.993Z</time>
</trkpt>
<trkpt lat="40.6589100" lon="14.4953000">
<ele>1217.157837</ele>
<time>2012-04-30T09:10:17.993Z</time>
</trkpt>
<trkpt lat="40.6586800" lon="14.4953200">
<ele>1217.157837</ele>
<time>2012-04-30T09:10:17.993Z</time>
</trkpt>
<trkpt lat="40.6584800" lon="14.4953700">
<ele>1217.645508</ele>
<time>2012-04-30T09:10:17.993Z</time>
</trkpt>
<trkpt lat="40.6584500" lon="14.4953700">
<ele>1218.133179</ele>
<time>2012-04-30T09:10:17.993Z</time>
</trkpt>
<trkpt lat="40.6583800" lon="14.4952400">
<ele>1215.725342</ele>
<time>2012-04-30T09:10:17.993Z</time>
</trkpt>
<trkpt lat="40.6582200" lon="14.4953100">
<ele>1214.292725</ele>
<time>2012-04-30T09:10:17.993Z</time>
</trkpt>
<trkpt lat="40.6580900" lon="14.4953800">
<ele>1211.397095</ele>
<time>2012-04-30T09:10:17.993Z</time>
</trkpt>
<trkpt lat="40.6580000" lon="14.4954700">
<ele>1208.989258</ele>
<time>2012-04-30T09:10:17.993Z</time>
</trkpt>
<trkpt lat="40.6579500" lon="14.4955300">
<ele>1209.476929</ele>
<time>2012-04-30T09:10:17.993Z</time>
</trkpt>
<trkpt lat="40.6578800" lon="14.4957400">
<ele>1209.964600</ele>
<time>2012-04-30T09:10:17.993Z</time>
</trkpt>
<trkpt lat="40.6577500" lon="14.4959700">
<ele>1210.909424</ele>
<time>2012-04-30T09:10:17.993Z</time>
</trkpt>
<trkpt lat="40.6575791" lon="14.4962129">
<ele>1212.372559</ele>
<time>2012-04-30T09:10:17.993Z</time>
</trkpt>
<trkpt lat="40.6574244" lon="14.4964489">
<ele>1213.317383</ele>
<time>2012-04-30T09:10:17.993Z</time>
</trkpt>
<trkpt lat="40.6572820" lon="14.4965723">
<ele>1214.292725</ele>
<time>2012-04-30T09:10:17.993Z</time>
</trkpt>
<trkpt lat="40.6571000" lon="14.4967200">
<ele>1214.749878</ele>
<time>2012-04-30T09:10:17.993Z</time>
</trkpt>
<trkpt lat="40.6569500" lon="14.4969300">
<ele>1216.700684</ele>
<time>2012-04-30T09:10:17.993Z</time>
</trkpt>
<trkpt lat="40.6568500" lon="14.4971200">
<ele>1218.620850</ele>
<time>2012-04-30T09:10:17.993Z</time>
</trkpt>
<trkpt lat="40.6566900" lon="14.4972800">
<ele>1220.053467</ele>
<time>2012-04-30T09:10:17.993Z</time>
</trkpt>
<trkpt lat="40.6566000" lon="14.4973200">
<ele>1219.565796</ele>
<time>2012-04-30T09:10:17.993Z</time>
</trkpt>
<trkpt lat="40.6564200" lon="14.4974300">
<ele>1220.998291</ele>
<time>2012-04-30T09:10:17.993Z</time>
</trkpt>
<trkpt lat="40.6562200" lon="14.4975300">
<ele>1222.461304</ele>
<time>2012-04-30T09:10:17.993Z</time>
</trkpt>
<trkpt lat="40.6560200" lon="14.4975400">
<ele>1221.973755</ele>
<time>2012-04-30T09:10:17.993Z</time>
</trkpt>
<trkpt lat="40.6558000" lon="14.4976400">
<ele>1223.406250</ele>
<time>2012-04-30T09:10:17.993Z</time>
</trkpt>
<trkpt lat="40.6556000" lon="14.4978200">
<ele>1224.381592</ele>
<time>2012-04-30T09:10:17.993Z</time>
</trkpt>
<trkpt lat="40.6554500" lon="14.4979800">
<ele>1225.814087</ele>
<time>2012-04-30T09:10:17.993Z</time>
</trkpt>
<trkpt lat="40.6553900" lon="14.4980300">
<ele>1226.301880</ele>
<time>2012-04-30T09:10:17.993Z</time>
</trkpt>
<trkpt lat="40.6553900" lon="14.4980300">
<ele>1226.789551</ele>
<time>2012-04-30T09:10:17.993Z</time>
</trkpt>
<trkpt lat="40.6553800" lon="14.4980500">
<ele>1225.814087</ele>
<time>2012-05-19T10:13:15.661Z</time>
</trkpt>
<trkpt lat="40.6553400" lon="14.4981300">
<ele>1223.406250</ele>
<time>2012-05-19T10:13:15.661Z</time>
</trkpt>
<trkpt lat="40.6552900" lon="14.4982200">
<ele>1221.485962</ele>
<time>2012-05-19T10:13:15.661Z</time>
</trkpt>
<trkpt lat="40.6553000" lon="14.4983200">
<ele>1218.133179</ele>
<time>2012-05-19T10:13:15.661Z</time>
</trkpt>
<trkpt lat="40.6552400" lon="14.4984100">
<ele>1215.237549</ele>
<time>2012-05-19T10:13:15.661Z</time>
</trkpt>
<trkpt lat="40.6552000" lon="14.4984500">
<ele>1211.884766</ele>
<time>2012-05-19T10:13:15.661Z</time>
</trkpt>
<trkpt lat="40.6551500" lon="14.4985200">
<ele>1208.989258</ele>
<time>2012-05-19T10:13:15.661Z</time>
</trkpt>
<trkpt lat="40.6551400" lon="14.4986600">
<ele>1206.124146</ele>
<time>2012-05-19T10:13:15.661Z</time>
</trkpt>
<trkpt lat="40.6551700" lon="14.4987400">
<ele>1202.740845</ele>
<time>2012-05-19T10:13:15.661Z</time>
</trkpt>
<trkpt lat="40.6551600" lon="14.4988000">
<ele>1199.387939</ele>
<time>2012-05-19T10:13:15.661Z</time>
</trkpt>
<trkpt lat="40.6550800" lon="14.4988800">
<ele>1196.004639</ele>
<time>2012-05-19T10:13:15.661Z</time>
</trkpt>
<trkpt lat="40.6550300" lon="14.4989900">
<ele>1193.627319</ele>
<time>2012-05-19T10:13:15.661Z</time>
</trkpt>
<trkpt lat="40.6549000" lon="14.4991400">
<ele>1193.139648</ele>
<time>2012-05-19T10:13:15.661Z</time>
</trkpt>
<trkpt lat="40.6547700" lon="14.4993200">
<ele>1196.492432</ele>
<time>2012-05-19T10:13:15.661Z</time>
</trkpt>
<trkpt lat="40.6547600" lon="14.4996100">
<ele>1194.572144</ele>
<time>2012-05-19T10:13:15.661Z</time>
</trkpt>
<trkpt lat="40.6547900" lon="14.4998300">
<ele>1195.547485</ele>
<time>2012-05-19T10:13:15.661Z</time>
</trkpt>
<trkpt lat="40.6547800" lon="14.4998900">
<ele>1198.900269</ele>
<time>2012-05-19T10:13:15.661Z</time>
</trkpt>
<trkpt lat="40.6546000" lon="14.5000000">
<ele>1201.795898</ele>
<time>2012-05-19T10:13:15.661Z</time>
</trkpt>
<trkpt lat="40.6544300" lon="14.4999800">
<ele>1199.875732</ele>
<time>2012-05-19T10:13:15.661Z</time>
</trkpt>
<trkpt lat="40.6543200" lon="14.4999600">
<ele>1198.900269</ele>
<time>2012-05-19T10:13:15.661Z</time>
</trkpt>
<trkpt lat="40.6540200" lon="14.4999700">
<ele>1199.875732</ele>
<time>2012-05-19T10:13:15.661Z</time>
</trkpt>
<trkpt lat="40.6539500" lon="14.5000200">
<ele>1200.820557</ele>
<time>2012-05-19T10:13:15.661Z</time>
</trkpt>
<trkpt lat="40.6537800" lon="14.4999900">
<ele>1202.253052</ele>
<time>2012-05-19T10:13:15.661Z</time>
</trkpt>
<trkpt lat="40.6535900" lon="14.5000600">
<ele>1205.148682</ele>
<time>2012-05-19T10:13:15.661Z</time>
</trkpt>
<trkpt lat="40.6535800" lon="14.5000700">
<ele>1205.148682</ele>
<time>2012-05-19T10:13:15.661Z</time>
</trkpt>
<trkpt lat="40.6534800" lon="14.5002400">
<ele>1207.068970</ele>
<time>2012-05-19T10:13:15.661Z</time>
</trkpt>
<trkpt lat="40.6534700" lon="14.5004400">
<ele>1210.452271</ele>
<time>2012-05-19T10:13:15.661Z</time>
</trkpt>
<trkpt lat="40.6532900" lon="14.5004800">
<ele>1212.829712</ele>
<time>2012-05-19T10:13:15.661Z</time>
</trkpt>
<trkpt lat="40.6532000" lon="14.5005700">
<ele>1215.725342</ele>
<time>2012-05-19T10:13:15.661Z</time>
</trkpt>
<trkpt lat="40.6532000" lon="14.5006500">
<ele>1215.725342</ele>
<time>2012-05-19T10:13:15.661Z</time>
</trkpt>
<trkpt lat="40.6531900" lon="14.5007000">
<ele>1215.237549</ele>
<time>2012-05-19T10:13:15.661Z</time>
</trkpt>
<trkpt lat="40.6531100" lon="14.5008600">
<ele>1217.157837</ele>
<time>2012-05-19T10:13:15.661Z</time>
</trkpt>
<trkpt lat="40.6529300" lon="14.5009700">
<ele>1218.133179</ele>
<time>2012-05-19T10:13:15.661Z</time>
</trkpt>
<trkpt lat="40.6528700" lon="14.5010900">
<ele>1220.998291</ele>
<time>2012-05-19T10:13:15.661Z</time>
</trkpt>
<trkpt lat="40.6527500" lon="14.5010900">
<ele>1224.381592</ele>
<time>2012-05-19T10:13:15.661Z</time>
</trkpt>
<trkpt lat="40.6525000" lon="14.5012700">
<ele>1225.326538</ele>
<time>2012-05-19T10:13:15.661Z</time>
</trkpt>
<trkpt lat="40.6524100" lon="14.5013900">
<ele>1228.222168</ele>
<time>2012-05-19T10:13:15.661Z</time>
</trkpt>
<trkpt lat="40.6524000" lon="14.5014300">
<ele>1229.197510</ele>
<time>2012-05-19T10:13:15.661Z</time>
</trkpt>
<trkpt lat="40.6524700" lon="14.5015300">
<ele>1229.654663</ele>
<time>2012-05-19T10:13:15.661Z</time>
</trkpt>
<trkpt lat="40.6523800" lon="14.5015600">
<ele>1232.062500</ele>
<time>2012-05-19T10:13:15.661Z</time>
</trkpt>
<trkpt lat="40.6523800" lon="14.5016800">
<ele>1235.445801</ele>
<time>2012-05-19T10:13:15.661Z</time>
</trkpt>
<trkpt lat="40.6523600" lon="14.5017600">
<ele>1237.366089</ele>
<time>2012-05-19T10:13:15.661Z</time>
</trkpt>
<trkpt lat="40.6521900" lon="14.5017300">
<ele>1240.231201</ele>
<time>2012-05-19T10:13:15.661Z</time>
</trkpt>
<trkpt lat="40.6520800" lon="14.5016400">
<ele>1241.694214</ele>
<time>2012-05-19T10:13:15.661Z</time>
</trkpt>
<trkpt lat="40.6519900" lon="14.5015300">
<ele>1240.718872</ele>
<time>2012-05-19T10:13:15.661Z</time>
</trkpt>
<trkpt lat="40.6519100" lon="14.5014600">
<ele>1238.798706</ele>
<time>2012-05-19T10:13:15.661Z</time>
</trkpt>
<trkpt lat="40.6519100" lon="14.5014500">
<ele>1238.798706</ele>
<time>2012-05-19T10:13:15.661Z</time>
</trkpt>
<trkpt lat="40.6517700" lon="14.5013300">
<ele>1237.823364</ele>
<time>2012-05-19T10:13:15.661Z</time>
</trkpt>
<trkpt lat="40.6516700" lon="14.5011200">
<ele>1237.366089</ele>
<time>2012-05-19T10:13:15.661Z</time>
</trkpt>
<trkpt lat="40.6516500" lon="14.5009800">
<ele>1239.743530</ele>
<time>2012-05-19T10:13:15.661Z</time>
</trkpt>
<trkpt lat="40.6516100" lon="14.5008200">
<ele>1240.231201</ele>
<time>2012-05-19T10:13:15.661Z</time>
</trkpt>
<trkpt lat="40.6515500" lon="14.5007200">
<ele>1242.639038</ele>
<time>2012-05-19T10:13:15.661Z</time>
</trkpt>
<trkpt lat="40.6514400" lon="14.5006200">
<ele>1244.559326</ele>
<time>2012-05-19T10:13:15.661Z</time>
</trkpt>
<trkpt lat="40.6514000" lon="14.5004700">
<ele>1247.454956</ele>
<time>2012-05-19T10:13:15.661Z</time>
</trkpt>
<trkpt lat="40.6513100" lon="14.5005100">
<ele>1249.375244</ele>
<time>2012-05-19T10:13:15.661Z</time>
</trkpt>
<trkpt lat="40.6510700" lon="14.5006600">
<ele>1249.862915</ele>
<time>2012-05-19T10:13:15.661Z</time>
</trkpt>
<trkpt lat="40.6509000" lon="14.5008700">
<ele>1247.942627</ele>
<time>2012-05-19T10:13:15.661Z</time>
</trkpt>
<trkpt lat="40.6508100" lon="14.5009300">
<ele>1248.887451</ele>
<time>2012-05-19T10:13:15.661Z</time>
</trkpt>
<trkpt lat="40.6507000" lon="14.5011100">
<ele>1250.320068</ele>
<time>2012-05-19T10:13:15.661Z</time>
</trkpt>
<trkpt lat="40.6505600" lon="14.5012800">
<ele>1253.703369</ele>
<time>2012-05-19T10:13:15.661Z</time>
</trkpt>
<trkpt lat="40.6504600" lon="14.5014000">
<ele>1256.568481</ele>
<time>2012-05-19T10:13:15.661Z</time>
</trkpt>
<trkpt lat="40.6504000" lon="14.5015500">
<ele>1258.488647</ele>
<time>2012-05-19T10:13:15.661Z</time>
</trkpt>
<trkpt lat="40.6503700" lon="14.5017100">
<ele>1260.896606</ele>
<time>2012-05-19T10:13:15.661Z</time>
</trkpt>
<trkpt lat="40.6503400" lon="14.5018800">
<ele>1262.816895</ele>
<time>2012-05-19T10:13:15.661Z</time>
</trkpt>
<trkpt lat="40.6502700" lon="14.5019800">
<ele>1264.737061</ele>
<time>2012-05-19T10:13:15.661Z</time>
</trkpt>
<trkpt lat="40.6502000" lon="14.5020300">
<ele>1266.687744</ele>
<time>2012-05-19T10:13:15.661Z</time>
</trkpt>
<trkpt lat="40.6501000" lon="14.5019900">
<ele>1270.040527</ele>
<time>2012-05-19T10:13:15.661Z</time>
</trkpt>
<trkpt lat="40.6499900" lon="14.5020300">
<ele>1271.960938</ele>
<time>2012-05-19T10:13:15.661Z</time>
</trkpt>
<trkpt lat="40.6499300" lon="14.5021100">
<ele>1275.313721</ele>
<time>2012-05-19T10:13:15.661Z</time>
</trkpt>
<trkpt lat="40.6498200" lon="14.5022100">
<ele>1278.209351</ele>
<time>2012-05-19T10:13:15.661Z</time>
</trkpt>
<trkpt lat="40.6497700" lon="14.5022100">
<ele>1280.617188</ele>
<time>2012-05-19T10:13:15.661Z</time>
</trkpt>
<trkpt lat="40.6498400" lon="14.5019900">
<ele>1282.049805</ele>
<time>2012-05-19T10:13:15.661Z</time>
</trkpt>
<trkpt lat="40.6499400" lon="14.5018500">
<ele>1283.969971</ele>
<time>2012-05-19T10:13:15.661Z</time>
</trkpt>
<trkpt lat="40.6500100" lon="14.5016700">
<ele>1287.353271</ele>
<time>2012-05-19T10:13:15.661Z</time>
</trkpt>
<trkpt lat="40.6499800" lon="14.5015800">
<ele>1290.218384</ele>
<time>2012-05-19T10:13:15.661Z</time>
</trkpt>
<trkpt lat="40.6499100" lon="14.5015000">
<ele>1292.138550</ele>
<time>2012-05-19T10:13:15.661Z</time>
</trkpt>
<trkpt lat="40.6499000" lon="14.5017000">
<ele>1294.546631</ele>
<time>2012-05-19T10:13:15.661Z</time>
</trkpt>
<trkpt lat="40.6498100" lon="14.5017700">
<ele>1297.929810</ele>
<time>2012-05-19T10:13:15.661Z</time>
</trkpt>
<trkpt lat="40.6497000" lon="14.5017800">
<ele>1300.795044</ele>
<time>2012-05-19T10:13:15.661Z</time>
</trkpt>
<trkpt lat="40.6496100" lon="14.5018400">
<ele>1303.690674</ele>
<time>2012-05-19T10:13:15.661Z</time>
</trkpt>
<trkpt lat="40.6495000" lon="14.5018400">
<ele>1306.555664</ele>
<time>2012-05-19T10:13:15.661Z</time>
</trkpt>
<trkpt lat="40.6494300" lon="14.5019200">
<ele>1308.963623</ele>
<time>2012-05-19T10:13:15.661Z</time>
</trkpt>
<trkpt lat="40.6494300" lon="14.5019900">
<ele>1312.346924</ele>
<time>2012-05-19T10:13:15.661Z</time>
</trkpt>
<trkpt lat="40.6493500" lon="14.5019200">
<ele>1314.267090</ele>
<time>2012-05-19T10:13:15.661Z</time>
</trkpt>
<trkpt lat="40.6493300" lon="14.5017800">
<ele>1317.132202</ele>
<time>2012-05-19T10:13:15.661Z</time>
</trkpt>
<trkpt lat="40.6494100" lon="14.5016800">
<ele>1320.027832</ele>
<time>2012-05-19T10:13:15.661Z</time>
</trkpt>
<trkpt lat="40.6493300" lon="14.5017500">
<ele>1322.923340</ele>
<time>2012-05-19T10:13:15.661Z</time>
</trkpt>
<trkpt lat="40.6492300" lon="14.5019100">
<ele>1326.276123</ele>
<time>2012-05-19T10:13:15.661Z</time>
</trkpt>
<trkpt lat="40.6492400" lon="14.5019800">
<ele>1329.629028</ele>
<time>2012-05-19T10:13:15.661Z</time>
</trkpt>
<trkpt lat="40.6492300" lon="14.5020100">
<ele>1333.500000</ele>
<time>2012-05-19T10:13:15.661Z</time>
</trkpt>
<trkpt lat="40.6492100" lon="14.5020400">
<ele>1336.852783</ele>
<time>2012-05-19T10:13:15.661Z</time>
</trkpt>
<trkpt lat="40.6491900" lon="14.5023300">
<ele>1338.772949</ele>
<time>2012-05-19T10:13:15.661Z</time>
</trkpt>
<trkpt lat="40.6491900" lon="14.5024800">
<ele>1341.668579</ele>
<time>2012-05-19T10:13:15.661Z</time>
</trkpt>
<trkpt lat="40.6492100" lon="14.5026200">
<ele>1344.533813</ele>
<time>2012-05-19T10:13:15.661Z</time>
</trkpt>
<trkpt lat="40.6490500" lon="14.5026400">
<ele>1346.453979</ele>
<time>2012-05-19T10:13:15.661Z</time>
</trkpt>
<trkpt lat="40.6490000" lon="14.5025700">
<ele>1349.349609</ele>
<time>2012-05-19T10:13:15.661Z</time>
</trkpt>
<trkpt lat="40.6489200" lon="14.5025000">
<ele>1351.757446</ele>
<time>2012-05-19T10:13:15.661Z</time>
</trkpt>
<trkpt lat="40.6488900" lon="14.5025400">
<ele>1354.622559</ele>
<time>2012-05-19T10:13:15.661Z</time>
</trkpt>
<trkpt lat="40.6487900" lon="14.5026600">
<ele>1357.030640</ele>
<time>2012-05-19T10:13:15.661Z</time>
</trkpt>
<trkpt lat="40.6486300" lon="14.5027600">
<ele>1360.413818</ele>
<time>2012-05-19T10:13:15.661Z</time>
</trkpt>
<trkpt lat="40.6486600" lon="14.5029000">
<ele>1363.279053</ele>
<time>2012-05-19T10:13:15.661Z</time>
</trkpt>
<trkpt lat="40.6487100" lon="14.5030100">
<ele>1364.741943</ele>
<time>2012-05-19T10:13:15.661Z</time>
</trkpt>
<trkpt lat="40.6486900" lon="14.5032700">
<ele>1365.199219</ele>
<time>2012-05-19T10:13:15.661Z</time>
</trkpt>
<trkpt lat="40.6485400" lon="14.5034400">
<ele>1365.199219</ele>
<time>2012-05-19T10:13:15.661Z</time>
</trkpt>
<trkpt lat="40.6485200" lon="14.5036700">
<ele>1366.662231</ele>
<time>2012-05-19T10:13:15.661Z</time>
</trkpt>
<trkpt lat="40.6485300" lon="14.5038300">
<ele>1368.582520</ele>
<time>2012-05-19T10:13:15.661Z</time>
</trkpt>
<trkpt lat="40.6485500" lon="14.5039700">
<ele>1371.447632</ele>
<time>2012-05-19T10:13:15.661Z</time>
</trkpt>
<trkpt lat="40.6484500" lon="14.5039800">
<ele>1373.855469</ele>
<time>2012-05-19T10:13:15.661Z</time>
</trkpt>
<trkpt lat="40.6483800" lon="14.5040300">
<ele>1376.751099</ele>
<time>2012-05-19T10:13:15.661Z</time>
</trkpt>
<trkpt lat="40.6483600" lon="14.5040100">
<ele>1379.158936</ele>
<time>2012-05-19T10:13:15.661Z</time>
</trkpt>
<trkpt lat="40.6483200" lon="14.5040500">
<ele>1380.103882</ele>
<time>2012-05-19T10:13:15.661Z</time>
</trkpt>
<trkpt lat="40.6483100" lon="14.5041400">
<ele>1382.999512</ele>
<time>2012-05-19T10:13:15.661Z</time>
</trkpt>
<trkpt lat="40.6482000" lon="14.5041900">
<ele>1383.944458</ele>
<time>2012-05-19T10:13:15.661Z</time>
</trkpt>
<trkpt lat="40.6480900" lon="14.5043100">
<ele>1387.327759</ele>
<time>2012-05-19T10:13:15.661Z</time>
</trkpt>
<trkpt lat="40.6480200" lon="14.5044600">
<ele>1389.247925</ele>
<time>2012-05-19T10:13:15.661Z</time>
</trkpt>
<trkpt lat="40.6479900" lon="14.5045800">
<ele>1390.192749</ele>
<time>2012-05-19T10:13:15.661Z</time>
</trkpt>
<trkpt lat="40.6479100" lon="14.5045500">
<ele>1392.113037</ele>
<time>2012-05-19T10:13:15.661Z</time>
</trkpt>
<trkpt lat="40.6477500" lon="14.5046000">
<ele>1390.192749</ele>
<time>2012-05-19T10:13:15.661Z</time>
</trkpt>
<trkpt lat="40.6476900" lon="14.5047200">
<ele>1389.735596</ele>
<time>2012-05-19T10:13:15.661Z</time>
</trkpt>
<trkpt lat="40.6476000" lon="14.5048300">
<ele>1389.735596</ele>
<time>2012-05-19T10:13:15.661Z</time>
</trkpt>
<trkpt lat="40.6475900" lon="14.5048300">
<ele>1389.735596</ele>
<time>2012-05-19T10:13:15.661Z</time>
</trkpt>
<trkpt lat="40.6474600" lon="14.5048900">
<ele>1388.760132</ele>
<time>2012-05-19T10:13:15.661Z</time>
</trkpt>
<trkpt lat="40.6473200" lon="14.5049200">
<ele>1386.839966</ele>
<time>2012-05-19T10:13:15.661Z</time>
</trkpt>
<trkpt lat="40.6472100" lon="14.5049100">
<ele>1386.352295</ele>
<time>2012-05-19T10:13:15.661Z</time>
</trkpt>
<trkpt lat="40.6471000" lon="14.5050300">
<ele>1389.735596</ele>
<time>2012-05-19T10:13:15.661Z</time>
</trkpt>
<trkpt lat="40.6469100" lon="14.5051300">
<ele>1392.113037</ele>
<time>2012-05-19T10:13:15.661Z</time>
</trkpt>
<trkpt lat="40.6468800" lon="14.5051900">
<ele>1395.008545</ele>
<time>2012-05-19T10:13:15.661Z</time>
</trkpt>
<trkpt lat="40.6469200" lon="14.5052700">
<ele>1397.904175</ele>
<time>2012-05-19T10:13:15.661Z</time>
</trkpt>
<trkpt lat="40.6470000" lon="14.5053100">
<ele>1398.849121</ele>
<time>2012-05-19T10:13:15.661Z</time>
</trkpt>
<trkpt lat="40.6470700" lon="14.5053100">
<ele>1401.744751</ele>
<time>2012-05-19T10:13:15.661Z</time>
</trkpt>
<trkpt lat="40.6471000" lon="14.5053200">
<ele>1404.609741</ele>
<time>2012-05-19T10:13:15.661Z</time>
</trkpt>
<trkpt lat="40.6471500" lon="14.5053500">
<ele>1406.560669</ele>
<time>2012-05-19T10:13:15.661Z</time>
</trkpt>
<trkpt lat="40.6471700" lon="14.5054300">
<ele>1409.425659</ele>
<time>2012-05-19T10:13:15.661Z</time>
</trkpt>
<trkpt lat="40.6471700" lon="14.5054400">
<ele>1409.913452</ele>
<time>2012-05-19T10:13:15.661Z</time>
</trkpt>
<trkpt lat="40.6471900" lon="14.5054900">
<ele>1411.345947</ele>
<time>2012-05-19T10:13:15.661Z</time>
</trkpt>
<trkpt lat="40.6472600" lon="14.5055000">
<ele>1412.808960</ele>
<time>2012-05-19T10:13:15.661Z</time>
</trkpt>
<trkpt lat="40.6472700" lon="14.5054800">
<ele>1414.729248</ele>
<time>2012-05-19T10:13:15.661Z</time>
</trkpt>
<trkpt lat="40.6472600" lon="14.5054200">
<ele>1418.082031</ele>
<time>2012-05-19T10:13:15.661Z</time>
</trkpt>
<trkpt lat="40.6472700" lon="14.5054100">
<ele>1417.594238</ele>
<time>2012-05-19T10:13:15.661Z</time>
</trkpt>
<trkpt lat="40.6472800" lon="14.5053900">
<ele>1419.514648</ele>
<time>2012-05-19T10:13:15.661Z</time>
</trkpt>
<trkpt lat="40.6472600" lon="14.5053200">
<ele>1421.434814</ele>
<time>2012-05-19T10:13:15.661Z</time>
</trkpt>
<trkpt lat="40.6473200" lon="14.5053200">
<ele>1424.818115</ele>
<time>2012-05-19T10:13:15.661Z</time>
</trkpt>
<trkpt lat="40.6473400" lon="14.5053600">
<ele>1426.738281</ele>
<time>2012-05-19T10:13:15.661Z</time>
</trkpt>
<trkpt lat="40.6473500" lon="14.5053200">
<ele>1430.578857</ele>
<time>2012-05-19T10:13:15.661Z</time>
</trkpt>
<trkpt lat="40.6474000" lon="14.5053400">
<ele>1432.011475</ele>
<time>2012-05-19T10:13:15.661Z</time>
</trkpt>
<trkpt lat="40.6474200" lon="14.5054200">
<ele>1434.906982</ele>
<time>2012-05-19T10:13:15.661Z</time>
</trkpt>
<trkpt lat="40.6474200" lon="14.5054700">
<ele>1437.802612</ele>
<time>2012-05-19T10:13:15.661Z</time>
</trkpt>
<trkpt lat="40.6474300" lon="14.5054400">
<ele>1438.259766</ele>
<time>2012-05-19T10:13:15.661Z</time>
</trkpt>
<trkpt lat="40.6474700" lon="14.5053800">
<ele>1441.642944</ele>
<time>2012-05-19T10:13:15.661Z</time>
</trkpt>
<trkpt lat="40.6474900" lon="14.5054100">
<ele>1443.075562</ele>
<time>2012-05-19T10:13:15.661Z</time>
</trkpt>
<trkpt lat="40.6475000" lon="14.5054400">
<ele>1446.916138</ele>
<time>2012-05-19T10:13:15.661Z</time>
</trkpt>
<trkpt lat="40.6475000" lon="14.5054900">
<ele>1447.891357</ele>
<time>2012-05-19T10:13:15.661Z</time>
</trkpt>
<trkpt lat="40.6475000" lon="14.5055300">
<ele>1450.299438</ele>
<time>2012-05-19T10:13:15.661Z</time>
</trkpt>
<trkpt lat="40.6474900" lon="14.5055700">
<ele>1451.244141</ele>
<time>2012-05-19T10:13:15.661Z</time>
</trkpt>
<trkpt lat="40.6475000" lon="14.5055300">
<ele>1449.811768</ele>
<time>2012-05-19T10:13:15.661Z</time>
</trkpt>
<trkpt lat="40.6474800" lon="14.5055700">
<ele>1450.299438</ele>
<time>2012-05-19T10:13:15.661Z</time>
</trkpt>
<trkpt lat="40.6475000" lon="14.5057000">
<ele>1453.164551</ele>
<time>2012-05-19T10:13:15.661Z</time>
</trkpt>
<trkpt lat="40.6474700" lon="14.5058100">
<ele>1454.596924</ele>
<time>2012-05-19T10:13:15.661Z</time>
</trkpt>
<trkpt lat="40.6474600" lon="14.5058500">
<ele>1454.139771</ele>
<time>2012-05-19T10:13:15.661Z</time>
</trkpt>
</trkseg>
</trk>
</gpx>
